                ,  0.301,  0.397,  0.494,  0.590,  0.687,  0.784,  0.880,  0.977,  1.073,  1.170,  1.267,  1.363,  1.460,  1.556,  1.653,  1.749,  1.846,  1.943,  2.039,  2.136,  2.232,  2.329,  2.426,  2.522,  2.619,  2.715,  2.812,  2.909,  3.005,  3.102,  3.198,  3.295,  3.392,  3.488,  3.585,  3.681,  3.778,  3.875,  3.971,  4.068,  4.164,  4.261,  4.357,  4.454,  4.551,  4.647,  4.744,  4.840,  4.937,  5.034,  5.130,  5.227,  5.323,  5.420,  5.517,  5.613,  5.710,  5.806,  5.903,  6.000,  6.096,  6.193,  6.289,  6.386,  6.483,  6.579,  6.676,  6.772,  6.869,  6.965,  7.062,  7.159,  7.255,  7.352,  7.448,  7.545,  7.642,  7.738,  7.835,  7.931
2016/12/06 00:00,  999.0,  999.0,    0.2,    0.6,   -0.0,    0.1,    0.1,  999.0,  999.0,    0.2,  999.0,    0.1,    0.1,    0.0,   -0.2,   -0.2,    0.0,   -0.1,    0.0,   -0.2,   -0.2,    0.0,   -0.1,   -0.0,   -0.1,   -0.2,   -0.0,   -0.1,   -0.1,   -0.1,   -0.1,   -0.2,   -0.1,   -0.1,    0.1,   -0.3,  999.0,    0.0,    0.1,    0.0,   -0.6,   -0.3,   -0.1,   -0.1,    0.1,    0.2,   -0.0,    0.0,    0.1,   -0.0,    0.1,    0.3,    0.1,    0.2,    0.2,    0.1,   -0.1,   -0.2,   -0.3,   -0.3,   -0.4,   -0.2,   -0.6,    0.1,   -0.0,   -0.1,   -0.3,  999.0,  999.0,  999.0,  999.0,  999.0,   -0.4,  999.0,  999.0,  999.0,  999.0,  999.0,  999.0,  999.0
2016/12/06 00:10,  999.0,  999.0,   -0.0,   -0.1,    0.0,   -0.3,  999.0,  999.0,  999.0,    0.4,    0.1,   -0.0,   -0.1,   -0.1,   -0.1,    0.0,   -0.0,   -0.1,   -0.1,    0.1,    0.1,   -0.0,    0.1,    0.1,    0.0,    0.2,   -0.1,   -0.0,   -0.1,    0.1,   -0.1,   -0.1,    0.1,    0.1,   -0.0,   -0.1,   -0.2,    0.0,    0.2,    0.0,   -0.2,   -0.2,    0.2,    0.0,   -0.0,   -0.0,   -0.1,    0.0,    0.1,   -0.1,   -0.1,   -0.0,   -0.1,   -0.1,   -0.0,   -0.1,    0.0,   -0.1,   -0.1,    0.0,   -0.0,    0.4,   -0.3,    0.1,   -0.2,    0.1,    0.2,    0.0,  999.0,  999.0,  999.0,  999.0,  999.0,  999.0,  999.0,  999.0,  999.0,  999.0,  999.0,  999.0
2016/12/06 00:20,  999.0,  999.0,   -0.0,    0.1,    0.0,   -0.2,  999.0,  999.0,  999.0,  999.0,    0.1,    0.1,    0.1,    0.0,    0.0,   -0.0,   -0.0,   -0.0,    0.0,    0.0,    0.0,    1.5,    1.9,    0.1,   -0.0,   -0.1,   -0.1,   -0.1,   -0.2,    0.0,    0.1,    0.0,   -0.0,   -0.0,    0.1,   -0.0,   -0.6,   -0.3,   -0.1,   -0.0,   -0.1,   -0.2,    0.0,   -0.1,   -0.0,   -0.1,   -0.1,    0.0,   -0.1,   -0.1,   -0.1,   -0.1,   -0.1,   -0.0,   -0.0,   -0.1,    0.1,    0.0,   -0.0,    0.0,    0.2,    0.0,    0.2,   -0.0,    0.1,   -0.0,   -0.0,    0.1,   -0.2,  999.0,  999.0,   -0.0,  999.0,    0.0,  999.0,  999.0,  999.0,  999.0,  999.0,  999.0
2016/12/06 00:30,  999.0,  999.0,    0.0,    0.2,    0.1,  999.0,  999.0,  999.0,  999.0,  999.0,   -0.1,   -0.2,   -5.1,    0.0,    0.0,   -0.0,    0.0,    0.2,    0.6,  -11.7,    0.2,   -7.4,   -2.6,   -1.2,  999.0,    6.1,    3.3,    0.0,    0.1,    0.0,   -0.3,   -0.0,    0.1,    0.2,    0.0,    0.2,   -0.3,   -0.1,    0.0,   -0.2,   -0.3,   -0.1,    0.1,    0.1,    0.0,   -0.1,   -0.1,    0.0,   -0.0,   -0.1,   -0.1,    0.1,    0.1,   -0.1,   -0.2,    0.1,   -0.2,   -0.4,   -0.0,   -0.2,    0.2,    0.1,   -0.2,    0.3,   -0.2,   -0.0,    0.1,    0.0,  999.0,  999.0,    0.0,   -0.1,  999.0,  999.0,  999.0,  999.0,  999.0,  999.0,  999.0,  999.0
2016/12/06 00:40,  999.0,  999.0,  999.0,   -0.0,   -0.2,   -0.3,  999.0,  999.0,  999.0,   -0.1,   -0.1,   -0.1,   -0.1,   -0.0,    0.0,    0.1,   -0.1,   -0.0,    0.0,    0.1,   -0.1,    7.6,   -0.1,    7.2,    7.6,    8.0,    8.0,    0.1,    0.2,   -0.1,   -0.3,    0.1,   -0.2,   -0.2,    0.1,    0.1,    0.0,   -0.1,   -0.1,    0.0,   -0.3,   -0.2,    0.3,    0.0,   -0.3,   -0.1,    0.0,    0.0,    0.0,    0.4,    0.1,   -0.1,   -0.0,   -0.1,   -0.0,    0.1,    0.2,   -0.4,   -0.1,    0.1,    0.0,    0.3,    0.2,    0.2,  999.0,    0.1,  999.0,   -0.3,  999.0,  999.0,  999.0,  999.0,  999.0,  999.0,  999.0,  999.0,  999.0,  999.0,  999.0,  999.0
2016/12/06 00:50,  999.0,  999.0,   -0.1,    0.0,  999.0,  999.0,  999.0,  999.0,  999.0,  999.0,   -0.0,   -0.0,   -0.0,   -0.1,   -0.1,   -0.0,   -0.1,   -0.0,   -0.0,    0.1,   -0.1,   -0.0,   -0.0,   -0.1,    0.2,   -0.0,    1.4,    1.0,   -0.4,   -0.1,   -0.2,    0.0,   -0.1,    0.2,    0.1,    0.0,    0.0,    0.2,    0.1,   -0.0,   -0.3,   -0.3,    0.0,   -0.2,   -0.1,   -0.0,    0.0,   -0.1,   -0.1,    0.2,    0.0,    0.2,    0.1,   -0.1,   -0.2,   -0.0,    0.0,   -0.0,    0.0,    0.0,   -0.5,   -0.1,   -0.1,   -0.0,    0.0,    0.2,   -0.0,  999.0,  999.0,  999.0,  999.0,  999.0,  999.0,  999.0,  999.0,  999.0,  999.0,  999.0,  999.0,  999.0
2016/12/06 01:00,  999.0,   -0.1,    0.1,    0.4,    0.0,    0.0,   -0.0,    0.0,   -0.0,    0.1,    0.6,    0.4,    0.7,    3.0,   -0.2,   -0.3,   -0.6,   -0.1,   -0.1,    0.1,    2.7,  999.0,   -0.9,   -0.7,   -0.2,   -0.3,   -0.6,   -0.8,   -0.8,   -0.5,    0.2,    0.2,   -0.3,   -0.1,   -0.1,   -0.3,  999.0,   -0.3,   -0.2,   -0.0,   -0.4,   -0.5,   -0.0,   -0.1,    0.0,   -0.1,    0.1,    0.3,    0.0,   -0.0,   -0.1,  999.0,   -0.3,    0.2,   -0.0,    0.1,   -0.1,    0.1,    0.1,    0.1,    0.1,   -0.0,   -0.1,   -0.1,    0.2,    0.2,  999.0,   -0.1,  999.0,  999.0,  999.0,  999.0,  999.0,  999.0,  999.0,  999.0,  999.0,  999.0,  999.0,  999.0
2016/12/06 01:10,  999.0,  999.0,  999.0,   -0.1,   -0.1,    0.0,   -0.1,  999.0,  999.0,   -0.4,   -0.4,   -0.1,    0.3,    9.9,   10.3,   10.5,   -0.0,   10.9,    7.8,    7.8,    0.2,    7.2,   -0.2,    0.2,  999.0,   -0.0,   -0.1,   -0.4,   -0.2,   -0.0,   -0.1,   -0.1,    0.0,   -0.1,    0.2,   -0.1,   -0.4,   -0.1,   -0.0,   -0.2,   -0.5,   -0.1,    0.1,   -0.1,    0.0,   -0.0,   -0.1,   -0.2,   -0.1,   -0.0,   -0.0,    0.3,    0.0,    0.0,   -0.1,   -0.1,   -0.3,   -0.2,   -0.1,    0.1,   -0.1,    0.1,    0.2,    0.2,  999.0,   -0.1,   -0.1,  999.0,  999.0,  999.0,  999.0,  999.0,  999.0,  999.0,  999.0,  999.0,  999.0,  999.0,  999.0,  999.0
2016/12/06 01:20,  999.0,  999.0,   -0.0,   -0.1,   -0.1,   -0.0,    0.2,  999.0,  999.0,    0.1,    0.0,    0.1,    3.1,    3.2,    3.4,    3.9,    4.2,    0.1,    6.1,    5.7,    3.6,    2.9,    0.1,    2.4,    2.6,    0.5,   -0.3,    0.3,   -0.3,    0.2,   -0.2,   -0.7,    0.1,    0.2,   -0.2,   -0.3,    0.2,  999.0,   -0.1,   -0.1,   -0.4,   -0.5,    0.0,    0.1,    0.1,   -0.3,   -0.0,   -0.0,   -0.0,  999.0,   -0.2,    0.3,    0.2,    0.0,    0.5,   -0.1,  999.0,    0.0,    0.1,    0.1,  999.0,   -0.1,  999.0,   -0.1,  999.0,    0.4,   -0.2,  999.0,  999.0,  999.0,  999.0,  999.0,   -0.2,  999.0,  999.0,  999.0,  999.0,  999.0,  999.0,  999.0
2016/12/06 01:30,  999.0,   -0.5,    0.1,    0.0,    0.0,  999.0,  999.0,  999.0,  999.0,    4.7,    4.8,    5.3,   -0.0,   -0.0,   -0.2,    7.7,    7.7,    8.0,  999.0,  999.0,  999.0,  999.0,  999.0,  999.0,    3.5,    6.6,    5.1,    5.0,    5.9,    5.3,   -0.7,   -0.0,    0.0,   -0.4,  999.0,  999.0,  999.0,  999.0,    0.2,    0.1,   -0.3,  999.0,  999.0,    0.1,   -0.1,   -0.1,   -0.2,   -0.3,    0.0,  999.0,    0.0,  999.0,   -0.0,  999.0,   -0.2,  999.0,   -0.5,  999.0,  999.0,  999.0,   -0.2,  999.0,  999.0,    0.2,   -0.1,  999.0,  999.0,  999.0,  999.0,  999.0,  999.0,  999.0,  999.0,  999.0,  999.0,  999.0,  999.0,  999.0,  999.0,  999.0
2016/12/06 01:40,  999.0,  999.0,  999.0,   -0.0,    0.1,    0.3,  999.0,  999.0,  999.0,   -0.0,    8.2,    7.3,   10.8,   11.7,    8.8,  999.0,  999.0,  999.0,  999.0,  999.0,  999.0,  999.0,    8.2,  999.0,   14.2,  999.0,  999.0,  999.0,  999.0,  999.0,  999.0,  999.0,  999.0,  999.0,  999.0,  999.0,  999.0,  999.0,  999.0,  999.0,  999.0,  999.0,  999.0,  999.0,   -0.0,   -0.0,   -0.2,   -0.1,  999.0,  999.0,    0.2,  999.0,  999.0,  999.0,   -0.1,    0.0,   -0.0,  999.0,   -0.7,   -0.1,  999.0,   -0.2,  999.0,  999.0,   -0.1,  999.0,  999.0,  999.0,  999.0,  999.0,    0.1,  999.0,  999.0,    0.0,  999.0,  999.0,  999.0,  999.0,  999.0,  999.0
2016/12/06 01:50,  999.0,    0.5,   -0.7,   -0.2,   -0.3,   -0.6,   -0.0,  999.0,  999.0,    0.1,    0.0,    0.2,   -0.2,   -0.2,   -0.3,   -0.2,   -0.7,    3.9,   12.6,   -1.0,   -1.3,    5.0,  999.0,  999.0,  999.0,  999.0,  999.0,  999.0,  999.0,  999.0,  999.0,  999.0,  999.0,  999.0,  999.0,  999.0,  999.0,  999.0,  999.0,  999.0,   -0.4,  999.0,  999.0,   -0.1,    0.3,    0.8,  999.0,  999.0,    0.2,  999.0,  999.0,  999.0,   -0.0,  999.0,  999.0,  999.0,    0.1,  999.0,  999.0,  999.0,    0.2,  999.0,   -0.3,  999.0,  999.0,  999.0,  999.0,  999.0,  999.0,  999.0,  999.0,  999.0,  999.0,  999.0,  999.0,  999.0,  999.0,  999.0,  999.0,  999.0
2016/12/06 02:00,  999.0,   -0.2,   -0.1,   -0.4,   -0.2,   -0.1,   -0.1,   -0.2,    0.1,   -0.0,   -0.1,    0.1,   -0.1,   -0.2,   -0.2,   -0.3,   -0.5,   -0.6,   -0.5,   -0.8,   -1.3,   -1.3,  999.0,  999.0,   -0.3,   -0.1,   -0.4,   -0.0,    1.7,   -0.4,   -0.2,   -0.2,    0.1,    0.0,    0.1,    0.1,  999.0,   -0.2,    0.1,   -0.1,   -0.3,   -0.1,   -0.1,   -0.0,    0.3,    0.2,    0.2,    0.2,   -0.2,   -0.0,   -0.1,   -0.2,    0.0,   -0.0,   -0.1,    0.1,   -0.2,   -0.5,   -0.5,    0.1,    0.1,   -0.1,    0.3,    0.3,   -0.2,  999.0,  999.0,  999.0,    0.1,  999.0,  999.0,    0.2,    0.5,    0.4,   -0.0,  999.0,  999.0,  999.0,  999.0,  999.0
2016/12/06 02:10,  999.0,    0.1,    0.0,   -0.5,   -0.3,   -0.0,    0.0,   -0.0,   -0.0,   -0.0,    0.1,   -0.2,   -0.1,   -0.4,   -0.5,    0.7,    0.1,   -2.0,   -2.3,   -1.7,    0.1,   -0.3,    2.9,    0.7,    0.1,    0.6,    1.0,    1.5,    2.0,    1.4,    0.1,   -0.1,    0.1,    0.0,   -0.2,   -0.1,    0.3,  999.0,   -0.1,   -0.0,   -0.1,   -0.6,    0.0,    0.1,   -0.1,    0.1,    0.0,    0.0,   -0.0,   -0.1,    0.1,    0.2,    0.1,    0.1,    0.0,   -0.3,   -0.0,   -0.3,    0.2,   -0.1,   -0.0,    0.3,    0.1,   -0.2,  999.0,  999.0,    0.1,  999.0,  999.0,  999.0,  999.0,  999.0,  999.0,  999.0,   -0.1,  999.0,  999.0,  999.0,  999.0,  999.0
2016/12/06 02:20,  999.0,   -2.4,   -0.4,   -0.4,   -0.1,   -0.1,   -0.0,   -0.1,    0.1,   -0.2,    0.1,    0.0,    0.2,   -0.5,   -0.8,   -2.0,   -2.1,   -1.8,  999.0,  999.0,    1.2,    2.8,    2.9,    0.9,    0.9,    3.9,    6.4,    5.5,    5.3,    5.5,    1.0,    0.3,    0.7,    0.0,   -0.4,    0.1,    0.5,    0.0,    0.3,    0.0,    0.1,    0.0,   -0.0,   -0.1,   -0.0,    0.1,   -0.2,   -0.0,   -0.3,   -0.4,    0.2,   -0.0,   -0.1,   -0.1,   -0.2,    0.1,    0.1,    0.2,   -0.2,    0.1,   -0.0,    0.1,   -0.0,   -0.1,    0.1,   -0.0,   -0.0,    0.1,   -0.0,    0.1,    0.2,    0.2,  999.0,  999.0,  999.0,  999.0,  999.0,  999.0,  999.0,  999.0
2016/12/06 02:30,  999.0,   -0.2,   -0.0,    0.1,   -0.0,   -0.0,   -0.1,   -0.1,    0.0,    0.3,    0.9,    0.7,    1.0,    0.6,  999.0,    2.5,  999.0,  999.0,   -0.1,  999.0,  999.0,  999.0,  999.0,  999.0,    3.2,    5.0,    3.9,    4.6,    4.6,    4.7,    0.3,    0.6,    0.5,    0.1,   -0.1,  999.0,  999.0,    0.3,    0.2,  999.0,   -0.1,    0.1,  999.0,   -0.1,   -0.2,   -0.4,   -0.2,    0.1,   -0.1,   -0.0,  999.0,    0.4,    0.1,   -0.1,    0.0,   -0.0,   -0.1,   -0.1,   -0.0,    0.0,   -0.1,   -0.1,   -0.1,   -0.1,    0.1,    0.1,    0.1,    0.0,    0.0,    0.1,    0.2,   -0.1,   -0.3,  999.0,   -0.5,  999.0,  999.0,  999.0,  999.0,  999.0
2016/12/06 02:40,  999.0,   -0.3,    0.0,   -0.1,   -0.1,   -0.0,   -0.0,    0.1,    0.2,    0.5,    1.6,    1.7,    1.0,    3.5,    5.1,    5.4,    2.0,    0.7,   -0.1,    0.3,    0.3,  999.0,  999.0,    5.0,    3.4,    5.1,    6.9,    8.1,    5.1,    5.1,    2.4,    1.9,    0.4,    0.1,   -0.1,    0.1,    0.4,   -0.1,    0.2,    0.0,   -0.1,    0.3,    0.2,    0.3,    0.2,    0.1,   -0.1,    0.1,   -0.0,    0.0,  999.0,    0.2,    0.3,    0.1,    0.0,    0.1,   -0.1,   -0.0,    0.1,    0.1,    0.0,   -0.1,    0.0,   -0.0,   -0.1,    0.0,   -0.1,   -0.1,    0.1,  999.0,    0.1,   -0.1,    0.4,   -0.3,  999.0,  999.0,  999.0,  999.0,  999.0,  999.0
2016/12/06 02:50,  999.0,    0.0,    0.0,    0.1,   -0.1,    0.1,   -0.1,   -0.1,    0.1,   -0.1,    0.2,    0.3,    1.2,    3.1,    3.8,    4.9,    3.5,    1.3,   -0.2,    0.1,    1.3,  999.0,  999.0,  999.0,  999.0,    2.5,    8.7,   10.3,    3.8,    3.6,    1.8,    0.3,  999.0,  999.0,   -0.4,    0.1,    0.3,  999.0,  999.0,    0.2,   -0.2,    0.1,   -0.3,    0.2,    0.3,    0.1,    0.1,    0.0,   -0.0,   -0.1,   -0.3,   -0.1,    0.0,   -0.1,    0.3,    0.0,   -0.0,    0.1,    0.0,    0.1,   -0.2,   -0.1,   -0.0,   -0.0,  999.0,   -0.2,   -0.0,    0.3,    0.2,    0.1,  999.0,  999.0,  999.0,  999.0,  999.0,  999.0,  999.0,  999.0,  999.0,  999.0
2016/12/06 03:00,  999.0,   -0.6,   -0.8,   -0.9,   -0.0,    0.1,    0.0,    0.4,   -0.2,    0.7,    2.1,    1.4,    2.1,    5.5,    5.5,    4.5,    2.8,   -0.2,    0.1,  999.0,  999.0,  999.0,  999.0,  999.0,   10.1,   11.6,   14.4,   15.9,   17.3,  999.0,    4.2,    0.3,    0.2,    0.2,   -0.3,  999.0,  999.0,  999.0,  999.0,  999.0,   -0.3,   -0.6,   -0.4,  999.0,   -0.1,  999.0,    0.0,   -0.2,    0.2,   -0.1,   -0.3,   -0.1,    0.0,   -0.0,    0.2,    0.1,   -0.2,   -0.1,   -0.2,    0.1,    0.1,    0.0,    0.0,   -0.0,  999.0,    0.1,    0.0,   -0.1,   -0.0,    0.1,  999.0,  999.0,  999.0,  999.0,  999.0,  999.0,  999.0,  999.0,  999.0,  999.0
2016/12/06 03:10,  999.0,   -0.6,   -0.2,   -0.0,   -0.0,   -0.0,   -0.1,    0.0,    0.0,    0.0,  999.0,    1.3,    3.2,  999.0,  999.0,  999.0,  999.0,  999.0,  999.0,  999.0,  999.0,  999.0,  999.0,   12.1,   11.7,   15.1,   15.7,  999.0,  999.0,    5.6,    3.3,    0.5,    0.2,    0.2,    0.3,    0.1,   -0.2,   -0.3,   -0.2,  999.0,  999.0,  999.0,    0.2,  999.0,  999.0,   -0.3,   -0.0,    0.1,    0.1,    0.3,   -0.0,   -0.0,   -0.1,    0.2,   -0.3,   -0.1,   -0.0,   -0.1,    0.1,   -0.1,    0.1,   -0.0,   -0.3,   -0.1,    0.0,   -0.1,   -0.0,    0.2,  999.0,    0.1,  999.0,   -0.1,    0.2,  999.0,  999.0,  999.0,  999.0,  999.0,  999.0,  999.0
2016/12/06 03:20,  999.0,   -0.5,   -0.4,   -0.1,   -0.1,   -0.0,   -0.1,   -0.1,   -0.0,    0.0,    1.0,    1.3,  999.0,  999.0,  999.0,  999.0,  999.0,  999.0,  999.0,  999.0,  999.0,  999.0,   16.0,   15.5,  999.0,   16.2,   17.5,  999.0,  999.0,    3.1,    0.3,    0.2,    0.2,    0.1,    0.2,    0.0,    0.0,   -0.0,   -0.1,   -0.2,   -0.3,   -0.2,   -0.1,   -0.3,   -0.3,   -0.4,   -0.5,   -0.1,   -0.0,   -0.1,   -0.1,  999.0,   -0.0,    0.1,    0.1,    0.1,    0.1,   -0.1,    0.3,    0.2,   -0.1,    0.1,    0.2,    0.1,    0.3,  999.0,   -0.1,  999.0,    0.0,    0.3,  999.0,  999.0,    0.1,  999.0,  999.0,  999.0,  999.0,  999.0,  999.0,  999.0
2016/12/06 03:30,  999.0,   -0.1,    0.0,    0.0,   -0.0,   -0.2,   -0.1,   -0.0,   -0.1,   -0.4,   -0.2,  999.0,  999.0,  999.0,  999.0,  999.0,  999.0,  999.0,  999.0,  999.0,    7.9,    8.8,    9.4,   11.2,   12.9,   13.6,  999.0,  999.0,  999.0,    0.6,    0.3,    0.2,   -0.2,  999.0,    0.3,   -0.6,  999.0,  999.0,   -0.3,   -0.5,  999.0,   -0.1,    0.2,  999.0,    0.0,    0.2,  999.0,    0.0,   -0.3,  999.0,   -0.3,   -0.3,    0.3,    0.0,    0.1,    0.3,    0.2,    0.1,   -0.1,   -0.1,   -0.3,   -0.3,   -0.1,    0.1,   -0.0,    0.1,    0.2,   -0.0,   -0.1,   -0.1,  999.0,  999.0,    0.0,  999.0,  999.0,  999.0,  999.0,  999.0,  999.0,  999.0
2016/12/06 03:40,  999.0,  999.0,  999.0,   -2.6,   -1.1,   -0.1,    0.1,    0.3,    0.2,    0.9,    2.1,  999.0,  999.0,  999.0,  999.0,  999.0,   10.5,   10.1,    8.5,  999.0,   10.4,   10.4,   14.7,   11.7,   10.5,   13.6,  999.0,  999.0,   -0.1,    1.7,    0.3,   -0.0,    0.1,  999.0,   -0.1,  999.0,  999.0,    0.6,    0.2,    0.5,   -0.4,   -0.7,   -0.2,  999.0,   -0.2,  999.0,    0.1,    0.2,   -0.0,    0.0,    0.0,  999.0,   -0.2,    0.0,  999.0,    0.1,    0.0,    0.2,    0.2,   -0.3,   -0.2,   -0.6,   -0.1,   -0.0,    0.2,    0.0,   -0.1,   -0.4,   -0.0,  999.0,  999.0,  999.0,   -0.0,  999.0,  999.0,  999.0,  999.0,  999.0,  999.0,  999.0
2016/12/06 03:50,  999.0,   -1.8,   -1.5,   -1.5,   -0.6,   -0.3,   -0.2,    0.7,   -0.2,    0.6,    1.6,  999.0,  999.0,  999.0,  999.0,  999.0,   13.4,   13.6,  999.0,    5.8,    6.2,    5.7,    7.9,    4.7,    0.4,    0.4,    0.8,    0.6,    0.4,    0.7,    0.6,    0.2,  999.0,  999.0,  999.0,  999.0,  999.0,    0.5,   -0.1,    0.0,   -0.2,   -0.4,  999.0,    0.2,   -0.0,   -0.3,  999.0,   -0.1,  999.0,   -0.2,   -0.0,   -0.2,   -0.1,   -0.2,    0.3,   -0.0,  999.0,   -0.2,    0.2,    0.4,    0.1,    0.0,   -0.1,    0.0,  999.0,    0.1,  999.0,   -0.1,  999.0,  999.0,  999.0,  999.0,  999.0,  999.0,  999.0,  999.0,  999.0,  999.0,  999.0,  999.0
2016/12/06 04:00,  999.0,    0.5,   -0.7,   -0.8,   -0.3,   -0.2,   -0.5,   -0.3,   -0.1,    0.9,    1.5,    2.7,    2.1,    1.6,    1.8,    3.3,    3.0,    2.2,    3.1,    2.0,    1.6,    0.5,    0.1,    0.3,    0.5,    1.1,    0.5,    1.2,    2.1,    0.3,   -0.1,    0.1,    0.0,  999.0,  999.0,    0.4,    0.3,  999.0,   -0.1,   -0.0,  999.0,   -0.5,    0.1,    0.3,    0.1,    0.2,   -0.1,   -0.2,   -0.1,   -0.1,   -0.1,   -0.1,   -0.2,    0.2,  999.0,  999.0,  999.0,    0.0,   -0.0,    0.1,    0.1,    0.1,    0.0,   -0.2,  999.0,   -0.0,    0.0,  999.0,   -0.0,  999.0,  999.0,  999.0,   -0.0,  999.0,  999.0,  999.0,  999.0,  999.0,  999.0,  999.0
2016/12/06 04:10,  999.0,   -0.5,   -0.3,   -0.7,   -0.9,   -0.9,    0.9,    0.1,   -1.0,    0.1,    0.0,    2.7,    1.8,    3.1,    2.5,    3.4,    3.6,    2.8,    3.0,    1.7,    2.3,    2.3,    3.3,    3.9,    2.9,    1.0,    0.9,    1.7,    1.0,    0.2,    0.2,    0.0,   -0.1,    0.2,    0.1,   -0.1,    0.1,    0.9,    0.3,   -0.1,  999.0,   -0.2,    0.1,    0.2,    0.0,    0.3,    0.1,   -0.3,    0.3,    0.0,   -0.0,   -0.2,   -0.2,   -0.0,    0.2,   -0.0,    0.1,   -0.3,   -0.1,    0.2,    0.3,    0.1,    0.0,   -0.0,    0.3,   -0.1,   -0.2,   -0.1,  999.0,  999.0,  999.0,  999.0,  999.0,  999.0,  999.0,  999.0,  999.0,  999.0,  999.0,  999.0
2016/12/06 04:20,  999.0,   -0.3,    0.2,   -0.7,   -0.0,    0.3,    0.1,    0.4,    0.7,    1.6,  999.0,    0.8,   -0.1,    0.1,    0.3,    1.5,    3.4,    2.6,    2.3,    1.2,    2.7,    3.2,    3.9,    3.5,    2.1,    0.7,    0.8,    0.5,    0.3,    0.0,    0.2,    0.2,    0.3,    0.1,  999.0,   -0.1,  999.0,   -0.1,   -0.1,   -0.3,   -0.7,  999.0,   -0.2,   -0.0,  999.0,    0.1,    0.3,    0.0,   -0.0,   -0.2,  999.0,   -0.2,   -0.1,    0.1,   -0.2,  999.0,    0.1,   -0.0,    0.1,   -0.1,    0.1,   -0.2,    0.1,    0.2,   -0.1,    0.5,   -0.1,   -0.2,   -0.2,   -0.1,   -0.1,   -0.1,  999.0,  999.0,  999.0,  999.0,  999.0,  999.0,  999.0,  999.0
2016/12/06 04:30,  999.0,    0.0,    0.3,    0.1,   -0.0,   -0.2,    0.2,    0.4,    1.8,    1.7,    1.7,   -1.2,    0.5,    2.1,    0.5,    0.4,    0.4,    0.5,   -0.5,    0.1,   -0.1,   -0.3,    0.2,    0.7,    1.2,    0.6,    0.1,    0.3,    0.3,    0.1,    0.2,    0.4,   -0.1,   -0.3,    0.3,    0.3,  999.0,  999.0,    0.3,    0.0,   -0.2,  999.0,  999.0,   -0.2,   -0.4,  999.0,    0.0,  999.0,   -0.0,   -0.3,    0.3,  999.0,   -0.6,   -0.4,    0.1,    0.2,   -0.0,   -0.1,   -0.1,   -0.3,   -0.2,   -0.1,    0.4,    0.1,    0.0,    0.1,    0.1,    0.3,    0.0,    0.0,    0.0,  999.0,    0.0,  999.0,  999.0,  999.0,  999.0,  999.0,  999.0,  999.0
2016/12/06 04:40,  999.0,    0.0,    0.9,    0.7,    0.6,    1.0,    1.1,    0.9,    0.4,   -1.0,    0.2,    0.9,    1.1,    0.2,    0.5,   -0.2,    0.2,    0.9,    1.0,    0.5,    0.8,    0.8,    0.7,    1.0,    0.7,    0.0,    0.3,    0.1,    0.3,    0.2,    0.9,    0.0,   -0.1,    0.9,   -0.1,    0.2,   -0.1,    0.4,    0.0,    0.0,   -0.8,   -0.5,  999.0,   -0.0,   -0.1,    0.1,   -0.0,    0.0,   -0.0,    0.1,    0.3,  999.0,   -0.1,    0.3,   -0.1,    0.2,    0.0,   -0.0,   -0.0,   -0.0,    0.1,    0.0,    0.1,   -0.0,    0.0,   -0.1,    0.1,   -0.2,   -0.1,    0.0,   -0.1,  999.0,   -0.1,  999.0,  999.0,  999.0,  999.0,  999.0,  999.0,  999.0
2016/12/06 04:50,  999.0,    0.2,    1.6,    2.4,    1.3,    1.0,   -0.0,    0.5,    1.1,    2.1,  999.0,    7.7,   10.2,  999.0,  999.0,    9.7,    6.3,    3.7,    2.7,    1.1,   -0.0,    0.2,    0.5,    0.4,    0.4,    0.8,    0.2,    0.1,    0.5,    0.5,    0.8,    0.7,    0.2,    0.1,   -0.2,   -0.2,   -0.1,   -0.0,   -0.0,   -0.0,   -0.5,   -0.2,    0.1,   -0.1,   -0.0,    0.3,    0.2,    0.1,   -0.0,    0.1,    0.0,   -0.0,   -0.1,   -0.1,    0.0,   -0.0,   -0.2,    0.1,   -0.0,    0.0,    0.1,    0.1,    0.1,    0.2,    0.0,    0.1,    0.1,   -0.0,    0.1,    0.4,    0.1,    0.3,    0.1,  999.0,  999.0,  999.0,  999.0,  999.0,  999.0,  999.0
2016/12/06 05:00,  999.0,    0.0,    0.4,    0.7,    0.4,  999.0,    0.3,    0.1,    0.1,    2.0,    3.9,    7.5,   10.1,    6.7,   10.0,    9.5,    4.5,    2.3,    0.8,    0.1,    0.4,    0.3,    0.5,    0.7,    0.8,    0.1,    0.3,    0.5,    0.8,    0.2,    0.4,    0.2,    0.1,    0.4,   -0.2,    0.2,  999.0,    0.7,    0.1,   -0.2,   -0.3,   -0.1,    0.0,    0.1,    0.2,   -0.1,    0.1,    0.2,    0.2,    0.0,   -0.1,   -0.1,    0.1,   -0.1,    0.0,   -0.0,   -0.1,    0.0,    0.1,   -0.1,    0.0,   -0.0,    0.1,    0.0,    0.1,   -0.0,   -0.0,   -0.1,    0.0,    0.1,    0.1,    0.2,   -0.1,  999.0,  999.0,  999.0,  999.0,  999.0,  999.0,  999.0
2016/12/06 05:10,  999.0,    0.2,    0.7,    1.2,    1.6,    0.7,    0.7,    1.1,    0.7,    5.6,  999.0,    3.3,    2.0,    0.2,    0.5,    0.5,    0.7,    1.2,    0.7,    0.1,   -0.0,    0.4,    0.5,    0.5,    0.8,    1.0,    1.4,    1.3,    0.8,    0.4,    0.1,    0.2,    0.1,    0.0,  999.0,   -0.2,   -0.3,  999.0,   -0.1,   -0.2,   -0.3,   -0.2,   -0.1,   -0.1,   -0.1,    0.1,    0.1,    0.1,    0.1,    0.0,    0.0,    0.1,    0.1,    0.2,    0.2,    0.1,   -0.1,   -0.0,    0.0,    0.1,    0.1,    0.0,    0.2,    0.2,    0.1,   -0.0,    0.1,   -0.1,   -0.1,   -0.1,  999.0,    0.1,   -0.2,  999.0,  999.0,  999.0,  999.0,  999.0,  999.0,  999.0
2016/12/06 05:20,  999.0,   -0.1,    0.4,    0.5,    0.8,    0.5,    0.3,    0.4,    0.6,    0.8,    1.7,    1.8,    1.4,    1.4,    1.2,    1.3,    1.5,    0.5,    0.3,    0.7,    0.9,    0.7,    0.6,    0.3,    0.8,    0.9,    0.4,    0.5,    0.5,    2.2,    1.3,    0.3,    0.1,  999.0,    0.3,   -0.1,    0.2,    0.2,   -0.2,    0.0,   -0.2,   -0.1,    0.2,   -0.0,   -0.1,    0.2,    0.1,    0.3,    0.1,    0.2,    0.1,    0.1,    0.1,   -0.1,    0.1,    0.2,   -0.0,   -0.1,   -0.0,   -0.1,    0.0,   -0.0,   -0.1,    0.0,    0.0,   -0.1,    0.0,    0.2,    0.1,   -0.0,  999.0,   -0.1,    0.1,  999.0,  999.0,  999.0,  999.0,  999.0,  999.0,  999.0
2016/12/06 05:30,  999.0,    0.2,   -0.0,    0.3,    0.3,    0.3,    0.1,    0.4,  999.0,    0.4,    0.9,    1.0,    0.7,    0.7,    0.6,    0.5,    0.2,   -0.1,   -0.1,    0.0,    0.2,    0.1,    0.1,    0.3,    0.1,    0.1,   -0.1,    0.2,    0.1,    0.1,    0.1,    0.0,    0.0,    0.1,   -0.2,   -0.2,  999.0,  999.0,   -0.5,   -0.2,   -0.1,   -0.0,   -0.2,   -0.2,   -0.2,    0.2,   -0.0,   -0.1,    0.1,    0.0,   -0.0,   -0.0,   -0.1,   -0.1,    0.1,   -0.0,   -0.1,    0.0,   -0.2,   -0.1,   -0.0,    0.1,    0.0,   -0.0,   -0.0,   -0.0,   -0.1,   -0.1,   -0.1,    0.1,    0.1,  999.0,  999.0,  999.0,  999.0,  999.0,  999.0,  999.0,  999.0,  999.0
2016/12/06 05:40,  999.0,    0.1,    0.3,    0.5,    0.2,    0.5,    0.4,    0.5,    0.1,    0.0,    0.3,    0.3,    0.2,    0.4,    0.6,    0.4,    0.4,    0.3,    0.4,    0.1,    0.1,    0.2,    0.1,   -0.2,   -0.1,   -0.1,   -0.1,    0.3,    0.2,   -0.2,    0.3,    0.4,    0.2,    0.2,    0.5,  999.0,    0.0,    0.5,   -0.0,    0.1,   -0.2,    0.1,    0.1,   -0.0,    0.0,    0.4,    0.1,   -0.0,   -0.0,    0.0,    0.1,   -0.0,    0.1,   -0.1,    0.1,    0.1,   -0.0,   -0.1,   -0.2,   -0.1,   -0.0,   -0.0,   -0.1,    0.1,    0.0,   -0.1,   -0.1,   -0.1,    0.1,   -0.1,   -0.0,  999.0,   -0.0,  999.0,  999.0,  999.0,  999.0,  999.0,  999.0,  999.0
2016/12/06 05:50,  999.0,    0.3,    0.4,    0.4,    0.2,    0.4,    0.6,    0.3,    0.1,    0.4,    0.6,    0.7,    1.3,    1.7,    1.4,    1.1,    0.7,    0.4,   -0.2,   -0.3,    0.1,    0.1,    0.2,   -0.1,   -0.2,   -0.2,    0.4,    0.1,    0.1,   -0.2,    0.0,   -0.0,  999.0,    0.1,    0.1,   -0.1,  999.0,  999.0,   -0.3,    0.1,   -0.3,   -0.0,    0.1,    0.3,    0.2,   -0.0,    0.1,   -0.1,   -0.1,    0.0,   -0.1,   -0.0,    0.2,    0.0,    0.0,   -0.0,    0.1,   -0.1,   -0.1,   -0.1,   -0.1,    0.1,    0.2,   -0.1,   -0.0,   -0.0,    0.0,   -0.1,    0.2,    0.0,   -0.2,    0.0,   -0.1,  999.0,  999.0,  999.0,  999.0,  999.0,  999.0,  999.0
2016/12/06 06:00,  999.0,    0.3,    0.6,    1.0,    1.1,    0.6,    0.5,    0.1,  999.0,    0.5,    2.3,  999.0,    2.5,    2.3,    1.0,    0.6,    0.4,    0.1,    0.2,   -0.2,   -0.0,   -0.2,   -0.2,   -0.2,   -0.1,   -0.1,   -0.3,    0.0,    0.0,   -0.1,   -0.2,    0.1,    0.3,  999.0,    0.1,    0.0,    0.5,    0.3,   -0.1,   -0.3,   -0.2,    0.0,   -0.0,   -0.1,   -0.1,    0.1,  999.0,    0.2,    0.0,   -0.1,   -0.1,   -0.1,    0.0,   -0.1,   -0.1,   -0.1,   -0.2,   -0.2,   -0.1,   -0.0,    0.1,    0.1,    0.1,    0.1,   -0.1,    0.0,    0.0,    0.2,    0.2,    0.0,    0.1,  999.0,  999.0,  999.0,  999.0,  999.0,  999.0,  999.0,  999.0,  999.0
2016/12/06 06:10,  999.0,    0.5,    0.4,    0.9,   -0.2,    0.8,    0.8,    1.2,    2.2,    3.4,    3.4,    3.2,    1.9,    0.6,    1.0,    0.5,    0.4,    0.2,    0.1,    0.1,   -0.1,   -0.4,   -0.2,   -0.2,   -0.0,   -0.2,    0.1,   -0.3,   -0.1,   -0.1,    0.0,    0.1,   -0.0,   -0.0,   -0.2,    0.0,    0.2,  999.0,   -0.0,   -0.2,   -0.3,    0.1,    0.2,    0.3,    0.3,    0.4,    0.7,    0.4,    0.3,    0.1,    0.0,   -0.1,   -0.0,    0.1,   -0.1,   -0.0,    0.2,    0.2,   -0.0,   -0.0,   -0.1,   -0.0,    0.1,    0.2,   -0.2,   -0.0,    0.2,    0.1,    0.1,    0.1,  999.0,   -0.0,   -0.1,  999.0,  999.0,  999.0,  999.0,  999.0,  999.0,  999.0
2016/12/06 06:20,  999.0,   -0.1,    0.6,    0.4,    0.5,    0.5,    1.1,    2.3,    2.2,  999.0,  999.0,    0.7,    0.1,    0.2,    0.3,    0.2,    0.2,    0.4,    0.2,    0.1,   -0.0,   -0.1,    0.1,   -0.0,    0.0,    0.1,    0.3,   -0.0,    0.1,   -0.1,   -0.3,   -0.0,   -0.0,    0.1,    0.0,    0.2,    0.3,    0.1,   -0.1,   -0.1,   -0.2,   -0.2,    0.0,   -0.1,    0.0,   -0.0,    0.1,    0.3,    0.3,    0.7,    0.5,    0.4,    0.5,    0.2,    0.1,    0.1,   -0.0,    0.2,    0.0,    0.1,    0.2,    0.2,    0.1,   -0.0,   -0.1,    0.1,    0.0,   -0.0,   -0.1,   -0.2,    0.0,    0.1,    0.2,  999.0,  999.0,  999.0,  999.0,  999.0,  999.0,  999.0
2016/12/06 06:30,  999.0,    0.4,   -0.0,    0.7,    1.1,    1.3,    2.5,    4.4,    5.4,    3.7,    2.5,    1.1,   -0.0,    0.0,    0.1,    0.2,    0.4,    0.4,    0.2,   -0.1,   -0.2,    0.8,    1.3,    0.5,    0.3,   -0.2,    0.0,   -0.0,   -0.1,    0.0,    0.3,    0.1,    0.2,    0.0,    0.2,    0.2,    0.0,   -0.1,   -0.1,   -0.1,   -0.3,   -0.1,   -0.1,   -0.2,   -0.1,   -0.1,    0.0,    0.1,    0.1,   -0.1,    0.1,   -0.1,   -0.1,    0.0,    0.2,    0.0,    0.0,    0.1,    0.1,    0.1,    0.1,    0.1,    0.0,    0.1,   -0.1,   -0.0,    0.0,    0.1,    0.0,   -0.2,    0.2,   -0.1,   -0.1,  999.0,  999.0,  999.0,  999.0,  999.0,  999.0,  999.0
2016/12/06 06:40,  999.0,    2.6,    1.2,    1.9,    3.4,    4.3,    5.8,    6.3,    6.9,    5.4,  999.0,  999.0,    0.7,    0.2,   -0.1,   -0.7,    1.3,    0.6,   -0.0,   -0.3,   -0.1,    0.2,    0.0,   -0.1,   -0.2,    0.1,   -0.1,   -0.0,   -0.3,    0.1,   -0.1,    0.0,   -0.2,    0.0,    0.0,   -0.0,    0.1,    0.0,   -0.2,   -0.0,   -0.2,   -0.1,    0.1,    0.2,    0.0,    0.1,    0.2,   -0.1,   -0.1,   -0.1,    0.0,    0.1,    0.0,    0.0,   -0.0,    0.0,   -0.2,    0.2,    0.1,    0.1,   -0.0,   -0.1,   -0.0,   -0.1,    0.0,    0.1,    0.0,    0.1,    0.0,   -0.1,   -0.2,    0.0,   -0.1,  999.0,  999.0,  999.0,  999.0,  999.0,  999.0,  999.0
2016/12/06 06:50,  999.0,  999.0,  999.0,    0.5,    1.3,    1.5,  999.0,  999.0,  999.0,  999.0,  999.0,  999.0,  999.0,  999.0,  999.0,  999.0,  999.0,  999.0,  999.0,  999.0,  999.0,  999.0,  999.0,    0.4,    9.5,    6.4,    8.1,    4.8,    4.0,    3.4,    8.1,    5.3,    4.8,    4.6,    4.4,    3.8,    3.4,    4.5,    3.0,    2.5,    0.1,    1.8,    1.5,    1.5,    0.9,    0.7,    0.3,   -0.1,   -0.0,   -0.0,   -0.1,   -0.0,    0.0,   -0.0,    0.0,   -0.2,   -0.2,    0.2,    0.1,    0.1,    0.0,   -0.1,   -0.0,   -0.1,   -0.2,   -0.0,   -0.0,    0.1,    0.1,    0.1,    0.0,   -0.0,   -0.2,  999.0,  999.0,  999.0,  999.0,  999.0,  999.0,  999.0
2016/12/06 07:00,  999.0,    0.5,    1.0,    0.3,    0.5,    0.3,    0.2,    0.1,    0.4,    1.3,    2.0,    1.5,    1.3,    0.0,   -0.5,   -0.6,    0.0,   -0.0,   -0.1,   -0.3,    0.0,    0.1,    0.0,   -0.0,   -0.1,   -0.3,   -0.2,   -0.2,    0.1,   -0.1,   -0.1,    0.1,   -0.0,   -0.1,   -0.1,   -0.0,    0.1,   -0.1,   -0.1,    0.0,   -0.2,    0.1,    0.0,   -0.1,    0.1,   -0.1,   -0.1,    0.0,   -0.0,    0.0,    0.0,    0.0,    0.0,    0.0,   -0.1,   -0.1,    0.1,   -0.0,    0.2,    0.1,    0.1,    0.0,   -0.1,   -0.0,   -0.0,    0.1,   -0.1,   -0.1,   -0.1,   -0.0,  999.0,   -0.1,    0.1,  999.0,  999.0,  999.0,  999.0,  999.0,  999.0,  999.0
2016/12/06 07:10,  999.0,    9.8,   11.6,   12.3,   15.1,   11.8,   11.9,   11.0,   11.8,   11.9,   11.6,   12.6,   11.5,   10.2,   10.1,    9.4,  999.0,  999.0,    2.4,   -0.1,    0.1,    0.0,   -0.1,   -0.1,   -0.1,   -0.0,   -0.1,   -0.1,    0.1,    0.3,    0.1,    0.0,   -0.0,   -0.1,   -0.1,    0.0,    0.4,   -0.0,   -0.2,   -0.2,   -0.1,   -0.1,    0.0,    0.0,    0.1,    0.1,    0.1,   -0.1,   -0.1,    0.0,   -0.0,   -0.1,    0.1,    0.0,    0.1,   -0.0,   -0.1,   -0.0,   -0.0,    0.3,    0.1,    0.1,    0.1,    0.2,    0.1,    0.0,   -0.1,   -0.0,    0.1,    0.0,   -0.0,    0.0,    0.2,  999.0,  999.0,  999.0,  999.0,  999.0,  999.0,  999.0
2016/12/06 07:20,  999.0,  999.0,  999.0,  999.0,  999.0,  999.0,  999.0,  999.0,  999.0,  999.0,  999.0,   19.3,   19.4,   17.4,   18.0,   17.6,   15.1,   11.8,  999.0,   12.4,   12.0,    9.4,    3.9,    5.6,    0.2,   -0.0,    0.1,    0.0,   -0.2,   -0.0,    0.2,    0.1,   -0.0,    0.1,    0.1,   -0.0,   -0.0,   -0.4,   -0.1,   -0.1,   -0.2,   -0.1,    0.4,    0.2,   -0.1,    0.1,    0.1,    0.1,    0.1,    0.0,    0.1,   -0.0,    0.0,   -0.2,    0.0,    0.2,    0.2,   -0.1,    0.0,    0.0,    0.0,   -0.0,   -0.0,   -0.1,    0.0,    0.0,    0.1,   -0.0,   -0.0,  999.0,  999.0,    0.0,   -0.1,  999.0,  999.0,  999.0,  999.0,  999.0,  999.0,  999.0
2016/12/06 07:30,  999.0,  999.0,   -0.9,   -1.0,   -0.6,  999.0,    0.7,  999.0,    0.7,    1.4,   12.1,    9.3,    8.5,    7.2,    6.0,    5.7,    5.2,   -0.3,   -0.0,    0.1,    0.1,    0.1,    0.2,   -0.0,    0.0,    0.3,    0.1,    0.1,   -0.0,    0.1,    0.1,   -0.1,   -0.1,    0.1,   -0.2,   -0.1,    0.0,   -0.3,   -0.1,    0.3,   -0.2,   -0.1,    0.1,    0.1,    0.0,    0.1,   -0.1,   -0.1,   -0.0,    0.0,   -0.0,    0.0,   -0.1,    0.1,   -0.1,    0.1,   -0.0,    0.0,    0.1,    0.1,    0.1,    0.0,   -0.0,    0.1,    0.1,    0.0,   -0.1,   -0.1,   -0.0,   -0.1,    0.0,  999.0,    0.1,  999.0,  999.0,  999.0,  999.0,  999.0,  999.0,  999.0
2016/12/06 07:40,  999.0,  999.0,  999.0,  999.0,  999.0,  999.0,  999.0,  999.0,  999.0,  999.0,  999.0,  999.0,   13.8,   14.6,   15.5,   14.2,    7.6,    6.3,    7.8,    4.6,  999.0,  999.0,    0.5,    5.0,    4.6,    0.6,   -0.2,    0.1,   -0.0,   -0.0,    0.2,    0.1,   -0.2,    0.1,    0.3,   -0.1,  999.0,   -0.1,    0.1,    0.2,   -0.1,    0.0,    0.6,    0.5,    0.2,    0.0,   -0.1,    0.0,    0.0,    0.0,    0.1,    0.1,   -0.1,   -0.1,   -0.2,    0.0,   -0.0,    0.1,   -0.1,    0.1,   -0.0,    0.0,    0.1,    0.0,   -0.0,    0.1,   -0.1,    0.0,    0.0,    0.1,   -0.2,    0.1,   -0.2,   -0.1,  999.0,  999.0,  999.0,  999.0,  999.0,  999.0
2016/12/06 07:50,  999.0,  999.0,    5.2,    3.8,  999.0,    0.3,    0.2,  999.0,    0.6,    0.0,    4.6,    4.0,   11.7,    8.5,    8.7,    7.6,   11.4,    9.3,   10.0,   10.3,   12.2,   11.4,   11.2,    6.3,  999.0,  999.0,  999.0,  999.0,  999.0,   -0.0,   -0.0,   -0.0,   -0.1,    0.1,   -0.0,    0.2,    0.1,   -0.1,    0.0,   -0.1,   -0.1,    0.0,   -0.0,   -0.0,    0.0,    0.2,    0.2,    0.0,   -0.0,    0.0,    0.0,    0.1,    0.1,    0.2,    0.2,   -0.0,   -0.1,    0.0,    0.1,    0.0,   -0.1,    0.1,    0.1,  999.0,    0.0,   -0.0,   -0.1,   -0.1,   -0.1,   -0.0,   -0.1,    0.1,    0.1,   -0.4,  999.0,  999.0,  999.0,  999.0,  999.0,  999.0
2016/12/06 08:00,  999.0,   -0.6,   -0.2,    0.2,    0.0,    0.4,    0.9,    0.8,    3.2,    1.8,  999.0,    8.7,    9.2,   13.1,   13.6,   15.8,   15.0,   15.7,   16.3,   16.7,   17.1,   16.2,    9.3,  999.0,  999.0,  999.0,  999.0,    0.1,    0.3,    0.1,   -0.1,    0.1,   -0.0,    0.1,    0.2,    0.1,    0.5,    0.4,    0.3,    0.4,    0.0,    0.1,    0.3,    0.3,    0.4,    0.6,    0.3,    0.2,    0.2,    0.1,    0.0,    0.1,    0.2,   -0.0,    0.0,    0.0,   -0.0,    0.1,    0.0,   -0.0,    0.1,   -0.0,   -0.1,    0.0,  999.0,   -0.0,    0.0,   -0.0,   -0.2,   -0.1,  999.0,  999.0,   -0.1,  999.0,  999.0,  999.0,  999.0,  999.0,  999.0,  999.0
2016/12/06 08:10,  999.0,    0.1,    0.0,    0.1,    0.2,    0.4,    0.2,    0.3,    0.7,    1.0,    0.8,    1.0,    0.7,    0.4,    0.4,    0.4,    0.5,    0.8,  999.0,    0.3,    0.3,    0.9,    1.4,    1.6,    1.1,    0.4,    0.4,    0.2,    0.1,   -0.0,    0.4,    0.5,    0.4,   -0.1,    0.2,    0.3,    0.1,   -0.2,   -0.1,  999.0,    0.1,    0.8,    0.4,    0.4,    0.2,    0.1,  999.0,    0.1,    0.2,    0.2,   -0.0,    0.1,    0.1,   -0.0,   -0.0,    0.1,   -0.0,   -0.2,    0.2,   -0.1,   -0.0,    0.1,    0.1,  999.0,   -0.0,    0.0,   -0.0,    0.1,   -0.0,    0.3,  999.0,  999.0,  999.0,  999.0,  999.0,  999.0,  999.0,  999.0,  999.0,  999.0
2016/12/06 08:20,  999.0,    0.2,    1.1,   -0.1,  999.0,    0.1,    0.2,    0.3,    0.5,    0.6,    0.6,    0.8,    1.0,    0.8,    0.7,    0.7,    0.9,    0.9,    0.8,    0.7,    0.6,    1.0,    0.7,    0.7,    0.0,    0.3,    0.6,    0.3,    0.2,    0.3,   -0.1,    0.4,   -0.0,   -0.3,    0.1,    0.1,    0.2,    0.1,    0.2,  999.0,   -0.6,   -0.5,  999.0,    0.3,    0.2,    0.0,    0.2,    0.1,    0.2,    0.0,    0.3,    0.0,    0.0,   -0.0,    0.2,    0.0,    0.1,   -0.1,    0.0,    0.2,   -0.2,   -0.0,   -0.1,   -0.0,   -0.1,    0.1,    0.6,    0.0,  999.0,    0.3,  999.0,  999.0,  999.0,  999.0,  999.0,  999.0,  999.0,  999.0,  999.0,  999.0
2016/12/06 08:30,  999.0,    0.4,    0.1,   -0.1,   -0.0,    0.2,    0.3,    0.3,    0.4,    1.1,    1.7,    1.0,    1.0,    1.0,    1.2,    1.8,    1.8,    2.1,    1.4,    1.3,    1.6,    2.4,    2.7,    1.9,    0.8,    0.5,    0.8,    0.2,    0.4,    0.1,    0.4,    0.1,   -0.1,   -0.1,   -0.1,    0.1,   -0.1,  999.0,    0.9,    0.7,    0.9,    0.6,    0.4,    0.5,    0.2,   -0.2,   -0.1,    0.2,    0.2,  999.0,    0.6,    0.5,    0.3,    0.1,    0.1,    0.1,    0.1,   -0.0,   -0.2,    0.0,   -0.1,    0.1,    0.0,   -0.0,   -0.1,    0.0,   -0.1,   -0.0,  999.0,    0.2,   -0.1,  999.0,  999.0,  999.0,  999.0,  999.0,  999.0,  999.0,  999.0,  999.0
2016/12/06 08:40,  999.0,    0.1,    0.1,    0.1,    0.1,    0.1,  999.0,    0.4,    0.4,    0.5,    1.3,    0.9,    0.5,    0.7,    0.6,    0.8,    1.0,    1.4,    1.1,    1.0,    1.1,    1.7,    2.5,    2.1,    0.5,    0.6,    0.6,    0.8,    0.5,    0.2,   -0.0,   -0.1,    0.1,    0.2,    0.0,    0.0,    0.1,  999.0,    0.1,    0.1,   -0.4,   -0.1,   -0.2,    0.0,    0.1,   -0.1,   -0.0,   -0.1,    0.3,    0.1,   -0.2,    0.2,    0.1,    0.1,    0.1,   -0.2,    0.2,   -0.0,    0.1,    0.2,   -0.1,    0.0,   -0.0,    0.1,    0.0,   -0.1,   -0.0,   -0.2,   -0.1,   -0.5,   -0.0,  999.0,  999.0,  999.0,  999.0,  999.0,  999.0,  999.0,  999.0,  999.0
2016/12/06 08:50,  999.0,  999.0,    0.1,    0.1,   -0.0,   -0.1,   -0.0,   -0.2,   -0.8,   -0.2,    0.2,    0.1,    0.2,    1.1,    0.5,    0.9,    1.1,    0.9,    0.7,    0.6,    0.8,    1.1,    1.5,    1.5,    1.2,    0.6,    0.7,    0.6,    0.2,    0.1,    0.2,    0.1,    0.1,    0.1,    0.2,   -0.1,    0.1,    0.1,    0.1,    0.1,   -0.5,   -0.3,   -0.2,    0.0,    0.0,    0.2,  999.0,    0.1,    0.1,    0.4,    0.2,    0.1,    0.1,   -0.0,    0.1,    0.1,   -0.1,    0.0,    0.1,   -0.3,   -0.1,   -0.0,   -0.1,    0.1,   -0.0,    0.3,   -0.0,    0.1,   -0.1,   -0.0,    0.0,   -0.1,   -0.0,    0.0,    0.0,    0.0,  999.0,  999.0,  999.0,  999.0
2016/12/06 09:00,  999.0,    0.4,   -0.0,    0.1,    0.1,    0.8,    0.6,    2.2,    2.9,  999.0,   12.8,    8.5,    8.0,    8.3,    6.8,    6.6,    6.5,    6.9,    6.5,    9.5,    9.1,   12.8,   18.5,   10.6,   10.4,   10.5,    9.4,    8.8,    8.5,    8.7,    8.2,    9.5,    8.5,    8.7,    6.5,    7.4,    7.3,    8.6,   19.7,   14.3,    9.3,  999.0,  999.0,   -0.3,    0.3,    0.1,    0.1,    0.0,   -0.1,    0.0,   -0.1,    0.1,    0.0,   -0.1,   -0.0,   -0.1,    0.2,  999.0,    0.1,    0.2,   -0.0,   -0.4,   -0.0,    0.0,   -0.1,  999.0,   -0.1,    0.2,   -0.1,   -0.0,    0.1,    0.0,   -0.1,   -0.2,   -0.1,  999.0,  999.0,  999.0,  999.0,  999.0
2016/12/06 09:10,  999.0,  999.0,  999.0,  999.0,  999.0,  999.0,  999.0,  999.0,   19.9,   21.7,   21.2,   21.2,   22.1,   24.6,   26.9,   26.5,   27.5,   28.2,   25.6,  999.0,   22.3,   19.3,   19.6,   18.6,   19.3,   18.7,   18.2,   18.0,   17.2,   18.2,   19.5,   20.6,   21.5,   21.9,   22.8,   23.0,   24.1,   25.1,   24.3,   28.1,  999.0,  999.0,  999.0,  999.0,  999.0,    0.3,    0.1,    0.1,    0.1,   -0.1,    0.1,    0.1,   -0.2,   -0.3,   -0.6,    0.6,    0.0,   -0.2,   -0.3,   -0.5,  999.0,   -0.0,    0.1,  999.0,  999.0,  999.0,  999.0,  999.0,  999.0,  999.0,    0.0,  999.0,   -0.4,  999.0,  999.0,  999.0,  999.0,  999.0,  999.0,  999.0
2016/12/06 09:20,  999.0,  999.0,  999.0,  999.0,  999.0,  999.0,  999.0,  999.0,   11.4,   11.7,   12.8,   14.7,  999.0,   14.4,   14.7,   16.9,   18.2,   19.5,   17.5,   19.1,   19.4,   18.8,   26.1,   17.0,   18.4,   17.2,  999.0,   19.2,   20.7,   20.1,   20.5,   22.4,   24.2,  999.0,  999.0,  999.0,  999.0,  999.0,  999.0,  999.0,   -0.5,  999.0,   -0.2,   -0.1,    0.5,    0.4,    0.1,    0.1,    0.2,  999.0,   -0.0,  999.0,    0.1,    0.3,   -0.1,   -0.7,    0.4,   -0.4,   -0.1,    0.1,    0.2,   -0.0,   -0.0,   -0.3,   -0.2,  999.0,    0.0,  999.0,  999.0,  999.0,  999.0,  999.0,  999.0,  999.0,  999.0,  999.0,  999.0,  999.0,  999.0,  999.0
2016/12/06 09:30,  999.0,  999.0,    0.5,    0.2,    0.1,   -0.0,    0.0,  999.0,  999.0,    0.1,    0.1,   -0.0,   -0.2,  999.0,   -0.4,  999.0,  999.0,  999.0,  999.0,   18.2,   16.0,   21.5,   24.4,   23.9,   27.9,   26.7,   26.9,   25.7,   24.3,   23.2,   20.9,   22.2,   17.7,   19.0,   19.3,   13.2,   13.2,  999.0,  999.0,  999.0,  999.0,  999.0,   -0.1,   -0.2,   -0.0,    0.2,    0.2,    0.1,   -0.0,   -0.1,    0.1,   -0.2,    0.2,    0.1,    0.1,    0.1,    0.3,    0.5,    0.1,    0.2,  999.0,   -0.1,    0.3,   -0.0,   -0.1,  999.0,   -0.1,   -0.3,    0.1,   -0.4,  999.0,   -0.2,    0.0,    0.1,   -0.1,  999.0,  999.0,  999.0,  999.0,  999.0
2016/12/06 09:40,  999.0,  999.0,   -0.1,  999.0,  999.0,  999.0,  999.0,  999.0,    7.6,    9.0,  999.0,  999.0,  999.0,  999.0,  999.0,   25.9,   26.5,   25.6,   24.9,   22.3,   20.7,   20.3,   21.4,   22.2,   24.1,   24.3,   25.3,   25.3,   25.6,   27.6,  999.0,  999.0,  999.0,  999.0,  999.0,   16.7,  999.0,  999.0,    0.1,    0.0,   -0.1,   -0.2,    0.0,    0.2,   -0.0,    0.1,    0.1,   -0.0,    0.0,    0.0,    0.2,    0.1,   -0.0,    0.0,    0.1,    0.1,    0.0,   -0.1,    0.4,   -0.2,   -0.0,    0.3,  999.0,   -0.4,   -0.1,  999.0,  999.0,    0.0,   -0.2,    0.0,   -0.2,   -0.3,   -0.1,    0.1,   -0.3,    0.0,  999.0,  999.0,  999.0,  999.0
2016/12/06 09:50,  999.0,  999.0,  999.0,  999.0,  999.0,  999.0,  999.0,  999.0,  999.0,  999.0,  999.0,  999.0,  999.0,  999.0,  999.0,  999.0,  999.0,  999.0,   15.0,   16.0,   15.0,   18.3,   19.0,   21.7,  999.0,  999.0,  999.0,  999.0,  999.0,  999.0,  999.0,  999.0,  999.0,  999.0,  999.0,    0.0,   -0.1,   -0.1,    0.0,   -0.1,   -0.1,   -0.4,   -0.3,   -0.0,    0.1,    0.1,    0.1,    0.1,   -0.0,    0.3,   -0.0,   -0.4,    0.0,   -0.0,    0.1,    0.0,    0.1,    0.1,   -0.0,   -0.3,  999.0,    0.3,   -0.3,   -0.3,    0.1,   -0.6,   -0.5,  999.0,   -0.0,   -0.2,  999.0,  999.0,   -0.0,    0.0,  999.0,  999.0,  999.0,  999.0,  999.0,  999.0
2016/12/06 10:00,  999.0,  999.0,    0.1,   -0.1,   -0.1,  999.0,   -0.1,    0.2,    0.2,    1.7,  999.0,    2.5,    2.4,    2.4,    3.2,    1.7,    1.1,    2.6,    1.0,   -0.6,    1.1,    1.2,    4.8,    3.8,    0.9,    1.1,    2.5,    1.3,    1.5,   -0.0,    2.4,    0.1,    0.2,   -0.1,   -0.1,   -0.0,   -0.1,    0.1,    0.0,    0.0,   -0.3,   -0.3,   -0.2,   -0.2,    0.1,    0.1,    0.0,    0.0,   -0.0,    0.1,    0.1,   -0.2,    0.1,    0.0,    0.3,    0.0,   -0.1,    0.0,   -0.1,    0.1,   -0.1,    0.1,    0.3,   -0.1,    0.3,    0.3,    0.2,   -0.0,  999.0,   -0.2,   -0.1,   -0.4,    0.0,   -0.1,   -0.1,    0.1,  999.0,  999.0,  999.0,  999.0
2016/12/06 10:10,  999.0,  999.0,  999.0,  999.0,  999.0,  999.0,  999.0,  999.0,  999.0,  999.0,  999.0,  999.0,  999.0,  999.0,    5.4,    4.7,    8.9,   11.0,  999.0,  999.0,  999.0,   12.4,  999.0,  999.0,  999.0,  999.0,   13.4,   13.7,  999.0,  999.0,  999.0,  999.0,  999.0,  999.0,    0.4,  999.0,  999.0,  999.0,  999.0,  999.0,  999.0,  999.0,  999.0,  999.0,  999.0,   -0.1,   -0.1,    0.1,   -0.0,  999.0,  999.0,    0.0,    0.2,    0.2,    0.3,    0.4,   -0.1,   -0.1,   -0.1,   -0.3,  999.0,    0.1,   -0.1,   -0.2,   -0.3,    0.0,   -0.2,   -0.1,  999.0,  999.0,  999.0,  999.0,    0.0,    0.0,   -0.3,    0.2,  999.0,  999.0,  999.0,  999.0
2016/12/06 10:20,  999.0,  999.0,    3.1,    2.8,    2.2,    9.2,    5.8,    4.5,    5.0,    4.9,    7.9,    6.0,   10.2,    7.7,   12.3,   11.6,   12.8,   13.0,   11.4,    8.1,   10.0,    9.0,    8.2,   10.5,   17.4,   16.8,   16.1,   20.5,   17.8,   21.6,  999.0,  999.0,  999.0,  999.0,  999.0,  999.0,  999.0,  999.0,  999.0,  999.0,  999.0,   -0.3,  999.0,  999.0,  999.0,  999.0,    0.1,    0.3,   -0.0,   -0.1,    0.1,    0.2,    0.1,    0.2,   -0.1,    0.0,   -0.0,    0.1,   -0.0,    0.1,   -0.0,   -0.0,   -0.2,   -0.1,    0.3,  999.0,   -0.1,  999.0,   -0.1,  999.0,  999.0,   -0.2,  999.0,  999.0,   -0.1,  999.0,  999.0,  999.0,  999.0,  999.0
2016/12/06 10:30,  999.0,  999.0,    7.7,    6.0,    4.3,    5.7,    3.5,    1.7,    1.7,    1.9,    1.1,    0.9,    1.8,    1.9,    2.6,    1.2,    4.1,    8.0,    9.0,    6.2,    9.0,  999.0,   13.9,   18.6,   18.1,   19.8,   17.0,   13.5,   14.2,   17.0,  999.0,  999.0,  999.0,  999.0,  999.0,  999.0,  999.0,  999.0,  999.0,  999.0,  999.0,  999.0,  999.0,  999.0,  999.0,  999.0,  999.0,  999.0,  999.0,  999.0,  999.0,    0.2,  999.0,  999.0,    0.0,   -0.0,  999.0,  999.0,   -0.2,   -0.4,  999.0,  999.0,   -0.1,    0.2,    0.6,  999.0,  999.0,  999.0,  999.0,  999.0,  999.0,    0.1,  999.0,  999.0,  999.0,  999.0,  999.0,  999.0,  999.0,  999.0
2016/12/06 10:40,  999.0,  999.0,  999.0,    5.7,    4.6,    6.3,    3.1,    1.9,    3.5,    2.9,    2.6,    2.5,    1.2,    3.7,    4.4,    4.3,    4.8,  999.0,    5.8,    9.7,  999.0,   14.2,  999.0,  999.0,  999.0,   15.4,  999.0,  999.0,  999.0,  999.0,  999.0,  999.0,  999.0,  999.0,  999.0,  999.0,  999.0,  999.0,  999.0,  999.0,  999.0,  999.0,  999.0,  999.0,  999.0,  999.0,  999.0,  999.0,  999.0,  999.0,  999.0,  999.0,  999.0,  999.0,  999.0,  999.0,  999.0,  999.0,  999.0,  999.0,  999.0,  999.0,  999.0,  999.0,  999.0,  999.0,  999.0,  999.0,  999.0,  999.0,  999.0,  999.0,  999.0,  999.0,  999.0,  999.0,  999.0,  999.0,  999.0,  999.0
2016/12/06 10:50,  999.0,  999.0,  999.0,   13.0,  999.0,   10.1,    6.9,    3.0,    4.4,    5.7,    2.8,    5.1,    9.4,    7.8,    6.4,    4.7,  999.0,  999.0,  999.0,    6.1,    8.2,    8.9,   10.2,    8.9,   10.3,   14.6,  999.0,   10.0,    9.9,  999.0,  999.0,  999.0,  999.0,  999.0,  999.0,    2.0,  999.0,  999.0,  999.0,  999.0,   -0.3,  999.0,    0.4,   -0.0,    0.1,    0.1,   -0.0,    0.0,    0.1,   -0.1,    0.0,    0.2,   -0.2,    0.3,    0.3,    0.0,    0.1,    0.3,    0.1,    0.1,    0.2,   -0.1,    0.4,   -0.0,    0.2,    0.2,    0.3,    0.3,    0.2,    0.2,  999.0,  999.0,  999.0,   -0.1,    0.1,    0.2,  999.0,  999.0,  999.0,  999.0
2016/12/06 11:00,  999.0,  999.0,  999.0,  999.0,  999.0,  999.0,    3.0,  999.0,    4.3,    2.7,    2.6,    3.1,   -3.1,   -1.8,   -1.3,    4.9,    4.3,   10.2,  999.0,   17.0,   20.2,  999.0,  999.0,  999.0,  999.0,  999.0,  999.0,  999.0,  999.0,  999.0,  999.0,  999.0,  999.0,  999.0,  999.0,  999.0,  999.0,  999.0,  999.0,  999.0,  999.0,  999.0,  999.0,    0.0,   -0.4,  999.0,  999.0,    0.1,    0.4,  999.0,   -0.1,    0.2,    0.0,   -0.1,   -0.1,  999.0,    0.1,  999.0,    0.0,   -0.2,   -0.1,   -0.1,    0.0,    0.0,   -0.2,   -0.0,    0.3,    0.3,  999.0,    0.1,  999.0,  999.0,  999.0,  999.0,  999.0,  999.0,  999.0,  999.0,  999.0,  999.0
2016/12/06 11:10,  999.0,  999.0,    5.4,    1.2,   -0.6,    1.7,    2.0,    1.6,   -2.5,   -0.5,    0.6,    1.0,    2.1,    2.4,    2.1,    6.7,  999.0,  999.0,  999.0,    2.4,  999.0,  999.0,  999.0,   15.3,   16.7,  999.0,  999.0,  999.0,  999.0,  999.0,  999.0,  999.0,   -0.0,    0.3,  999.0,    0.2,   -0.3,   -0.1,    0.2,    0.2,   -0.3,   -0.4,    0.3,   -0.2,   -0.1,   -0.1,   -0.0,   -0.3,   -0.2,    0.3,    0.5,    0.3,    0.3,    0.1,    0.1,   -0.1,   -0.0,   -0.0,    0.2,    0.1,    0.1,    0.2,   -0.1,    0.1,   -0.1,  999.0,    0.4,    0.2,  999.0,    0.1,    0.3,    0.0,   -0.3,   -0.1,   -0.7,  999.0,  999.0,  999.0,  999.0,  999.0
2016/12/06 11:20,  999.0,  999.0,  999.0,  999.0,  999.0,  999.0,  999.0,    0.1,    0.8,    1.2,    1.9,    2.5,    1.9,    4.2,    2.6,    4.0,    2.5,  999.0,  999.0,  999.0,  999.0,  999.0,  999.0,  999.0,  999.0,  999.0,  999.0,  999.0,  999.0,  999.0,  999.0,  999.0,  999.0,  999.0,  999.0,  999.0,  999.0,    0.1,   -0.2,  999.0,   -0.5,   -0.2,    0.0,   -0.0,    0.1,    0.3,   -0.1,   -0.0,   -0.0,    0.5,   -0.0,  999.0,  999.0,    0.2,   -0.0,   -0.0,   -0.2,    0.3,   -0.1,   -0.3,    0.2,   -0.0,    0.0,    0.1,  999.0,  999.0,  999.0,    0.1,    0.2,  999.0,    0.2,    0.0,  999.0,    0.2,  999.0,  999.0,  999.0,  999.0,  999.0,  999.0
2016/12/06 11:30,  999.0,    0.0,  999.0,  999.0,  999.0,  999.0,    1.2,   -0.4,   -1.4,   -0.1,    0.2,    1.5,    2.0,  999.0,  999.0,    3.6,    2.3,  999.0,  999.0,  999.0,  999.0,  999.0,  999.0,  999.0,  999.0,  999.0,  999.0,  999.0,  999.0,  999.0,    0.3,    1.4,    0.8,  999.0,   -0.2,   -1.0,  999.0,  999.0,    0.0,  999.0,   -0.6,   -0.5,   -0.4,   -0.0,   -0.1,    0.1,   -0.1,   -0.1,   -0.4,   -0.0,    0.0,    0.4,    0.1,   -0.1,    0.1,   -0.5,   -0.2,    0.2,   -0.1,   -0.2,   -0.1,   -0.2,   -0.2,   -0.1,    0.1,    0.2,   -0.1,   -0.1,    0.2,    0.4,    0.2,   -0.2,    0.1,  999.0,  999.0,  999.0,  999.0,  999.0,  999.0,  999.0
2016/12/06 11:40,  999.0,   -1.5,    0.1,    1.1,    0.2,    0.0,    0.4,    0.5,    0.7,    0.5,    0.6,    0.4,   -0.3,    0.3,    0.8,   -0.3,    0.1,  999.0,    0.2,    1.0,    1.4,    3.1,    0.3,  999.0,   -0.5,    0.1,   -0.9,   -0.1,    0.1,    1.0,    0.2,    0.3,    0.1,   -0.1,   -0.1,  999.0,    0.3,  999.0,    0.1,   -0.1,   -0.3,   -0.2,    0.1,    0.1,    0.3,    0.1,   -0.2,   -0.0,   -0.1,   -0.4,   -0.0,    0.3,   -0.1,   -0.2,   -0.3,    0.0,    0.1,    0.0,   -0.2,   -0.1,    0.3,    0.0,   -0.2,    0.2,    0.0,    0.0,    0.1,    0.3,    0.0,  999.0,    0.3,   -0.2,    0.3,  999.0,    0.2,  999.0,  999.0,  999.0,  999.0,  999.0
2016/12/06 11:50,  999.0,    0.4,    0.0,    1.1,    0.3,    0.6,    0.5,  999.0,    1.6,   -1.4,    2.1,    2.9,    1.2,    1.8,    0.6,   -0.7,    0.6,    0.5,    2.3,    1.9,  999.0,  999.0,  999.0,  999.0,  999.0,  999.0,  999.0,  999.0,  999.0,  999.0,  999.0,  999.0,    0.0,    0.1,   -0.1,  999.0,   -0.0,    0.4,  999.0,    0.1,   -0.3,   -0.4,   -0.1,    0.1,   -0.0,   -0.1,   -0.0,   -0.2,    0.1,    0.2,   -0.0,    0.1,    0.4,   -0.1,   -0.2,   -0.0,    0.1,    0.0,   -0.1,    0.1,    0.1,    0.3,    0.2,    0.1,   -0.0,   -0.3,  999.0,   -0.1,   -0.2,   -0.5,  999.0,  999.0,  999.0,  999.0,  999.0,  999.0,  999.0,  999.0,  999.0,  999.0
2016/12/06 12:00,  999.0,  999.0,    1.6,    6.2,    6.9,   -1.7,    8.4,   10.8,   10.0,    7.4,    7.9,    7.3,    6.0,  999.0,    5.9,    9.2,  999.0,  999.0,   19.7,  999.0,  999.0,  999.0,  999.0,  999.0,  999.0,  999.0,  999.0,  999.0,  999.0,  999.0,  999.0,  999.0,  999.0,  999.0,  999.0,  999.0,  999.0,  999.0,  999.0,   -0.0,   -0.6,   -0.5,    0.0,    0.2,   -0.2,    0.1,    0.3,    0.2,   -0.1,    0.6,    0.2,    0.3,    0.4,   -0.2,   -0.2,   -0.3,   -0.0,    0.3,    0.2,   -0.0,   -0.3,    0.2,   -0.0,   -0.0,   -0.1,    0.3,    0.2,   -0.1,  999.0,  999.0,  999.0,  999.0,  999.0,  999.0,  999.0,  999.0,  999.0,  999.0,  999.0,  999.0
2016/12/06 12:10,  999.0,    5.3,    2.5,    3.7,  999.0,  999.0,   -0.5,    3.0,    4.1,    1.9,    2.0,    4.3,    2.4,    4.1,    2.1,    0.6,    4.7,  999.0,   13.9,  999.0,   13.9,  999.0,  999.0,   10.9,  999.0,  999.0,  999.0,  999.0,  999.0,  999.0,  999.0,  999.0,  999.0,  999.0,  999.0,  999.0,  999.0,  999.0,   -0.0,   -0.2,   -0.4,   -0.2,   -0.1,    0.1,    0.0,    0.0,   -0.1,    0.0,    0.1,   -0.2,   -0.1,   -0.1,   -0.1,   -0.1,   -0.1,   -0.1,    0.2,    0.1,    0.1,    0.1,    0.2,   -0.1,   -0.4,    0.1,    0.2,   -0.1,    0.0,   -0.3,  999.0,  999.0,  999.0,   -0.0,  999.0,    0.1,  999.0,  999.0,  999.0,  999.0,  999.0,  999.0
2016/12/06 12:20,  999.0,  999.0,  999.0,    5.9,    3.1,  999.0,    2.2,    3.2,    3.6,    4.2,    6.4,  999.0,    6.6,   11.5,   11.6,   12.6,  999.0,  999.0,  999.0,  999.0,  999.0,  999.0,  999.0,  999.0,  999.0,  999.0,  999.0,  999.0,  999.0,  999.0,  999.0,  999.0,  999.0,  999.0,  999.0,  999.0,  999.0,  999.0,  999.0,    0.2,   -0.0,    0.1,   -0.2,   -0.1,   -0.2,   -0.1,   -0.3,   -0.3,   -0.3,   -0.2,   -0.3,    0.0,    0.1,    0.1,    0.2,    0.2,   -0.1,   -0.1,    0.1,    0.1,    0.2,   -0.1,    0.1,  999.0,    0.1,    0.1,   -0.2,    0.2,  999.0,    0.1,  999.0,    0.2,  999.0,  999.0,  999.0,  999.0,  999.0,  999.0,  999.0,  999.0
2016/12/06 12:30,  999.0,  999.0,   -0.2,    2.5,    0.2,   -0.0,   -0.1,   -6.8,   -5.2,   -1.9,    3.2,    1.1,    4.2,    6.6,    4.8,    3.7,    3.4,  999.0,  999.0,  999.0,  999.0,  999.0,  999.0,  999.0,  999.0,  999.0,  999.0,  999.0,  999.0,  999.0,  999.0,  999.0,  999.0,  999.0,  999.0,  999.0,  999.0,  999.0,  999.0,    0.1,   -0.2,   -0.4,    0.0,   -0.1,   -0.1,   -0.4,  999.0,    0.1,    0.0,    0.1,    0.2,    0.3,    0.1,   -0.1,   -0.0,    0.1,   -0.2,    0.0,   -0.2,    0.2,    0.3,    0.2,   -0.0,   -0.2,   -0.1,    0.0,  999.0,  999.0,  999.0,  999.0,  999.0,  999.0,  999.0,  999.0,  999.0,  999.0,  999.0,  999.0,  999.0,  999.0
2016/12/06 12:40,  999.0,    5.8,    6.7,    3.7,   -0.1,    3.4,    0.1,    0.2,   -0.1,    0.5,    0.2,    0.2,   -0.0,    0.5,  999.0,  999.0,    0.8,  999.0,    0.2,  999.0,  999.0,    8.4,  999.0,  999.0,  999.0,  999.0,   17.3,  999.0,  999.0,    5.8,    5.3,    1.1,    0.2,  999.0,  999.0,    0.2,   -0.1,  999.0,    0.4,    0.0,   -0.1,   -0.2,    0.3,    0.2,    0.1,   -0.0,   -0.0,    0.1,   -0.1,    0.1,    0.1,    0.2,   -0.0,    0.1,   -0.2,   -0.0,   -0.1,    0.1,   -0.0,   -0.5,    0.1,    0.1,    0.1,   -0.0,  999.0,   -0.3,   -0.1,   -0.3,  999.0,    0.0,  999.0,  999.0,   -0.3,  999.0,   -0.2,  999.0,  999.0,  999.0,  999.0,  999.0
2016/12/06 12:50,  999.0,  999.0,   -0.0,    0.1,    0.1,   -0.1,   -0.2,   -0.3,   -0.0,    0.1,    0.2,   -0.1,   -0.0,   -0.1,    0.1,    0.4,  999.0,  999.0,  999.0,  999.0,  999.0,  999.0,  999.0,  999.0,  999.0,  999.0,   -0.6,    1.6,   -1.4,  999.0,    0.5,    0.0,   -0.3,    0.2,    0.0,    0.3,  999.0,  999.0,    0.0,   -0.1,   -0.3,    0.0,   -0.0,    0.1,   -0.1,    0.2,    0.2,    0.0,    0.0,   -0.0,    0.0,    0.0,    0.1,   -0.1,    0.0,   -0.1,    0.4,   -0.2,   -0.1,    0.1,   -0.1,    0.1,    0.0,   -0.0,   -0.2,   -0.2,    0.1,    0.4,    0.0,  999.0,    0.0,   -0.3,  999.0,  999.0,   -0.6,  999.0,  999.0,  999.0,  999.0,  999.0
2016/12/06 13:00,  999.0,    0.2,    0.0,    0.1,   -0.0,   -0.0,   -0.2,   -0.1,    0.7,    0.5,    0.2,    0.4,    0.2,    0.6,    0.3,    0.0,    0.1,    0.1,    0.1,   -0.0,   -0.0,    0.1,   -0.4,   -0.2,   -0.1,  999.0,   -0.1,    0.4,   -0.0,    0.1,    0.1,    0.1,   -0.0,    0.1,    0.2,   -0.0,    0.2,   -0.1,    0.1,   -0.0,   -0.7,   -0.4,    0.0,    0.2,    0.1,    0.1,    0.1,   -0.1,    0.2,    0.2,   -0.0,    0.1,    0.3,    0.1,   -0.2,    0.0,    0.2,   -0.2,   -0.1,   -0.0,    0.1,    0.1,   -0.2,   -0.2,   -0.0,    0.0,    0.1,   -0.1,    0.1,   -0.1,   -0.2,  999.0,   -0.1,  999.0,  999.0,  999.0,  999.0,  999.0,  999.0,  999.0
2016/12/06 13:10,  999.0,   -0.2,   -0.1,    0.1,    0.1,    0.0,   -0.1,   -0.2,   -0.2,    0.3,    0.8,    0.7,    0.3,    0.3,    0.3,    0.4,    0.7,    0.9,    0.7,    0.5,    0.2,    0.6,  999.0,    1.3,    0.6,    1.4,   -0.1,    0.4,   -0.1,    0.4,    0.5,    0.1,   -0.1,    0.2,   -0.1,  999.0,    0.1,   -0.0,   -0.1,    0.0,   -0.5,   -0.2,    0.1,    0.1,    0.0,   -0.0,    0.1,    0.1,    0.1,   -0.2,    0.0,    0.1,   -0.0,   -0.1,   -0.0,    0.2,   -0.0,    0.1,   -0.0,   -0.2,    0.1,   -0.2,   -0.1,   -0.2,   -0.2,    0.3,    0.0,    0.1,   -0.0,    0.1,  999.0,   -0.3,    0.0,  999.0,  999.0,  999.0,  999.0,  999.0,  999.0,  999.0
2016/12/06 13:20,  999.0,    0.1,   -0.0,    0.0,   -0.1,   -0.2,   -0.2,  999.0,  999.0,  999.0,  999.0,  999.0,    1.2,    0.8,    0.6,  999.0,  999.0,  999.0,  999.0,  999.0,  999.0,  999.0,  999.0,  999.0,   -0.9,  999.0,   -0.3,   -0.3,   -0.5,   -0.2,   -0.0,    0.1,   -0.0,   -0.0,   -0.2,   -0.0,    0.1,    0.0,    0.1,    0.0,   -0.1,   -0.1,    0.1,    0.3,    0.0,   -0.0,    0.2,   -0.0,   -0.1,   -0.1,   -0.2,   -0.0,   -0.0,   -0.1,    0.1,   -0.1,   -0.0,    0.0,    0.0,    0.4,    0.5,    0.1,   -0.4,    0.1,  999.0,    0.3,    0.1,    0.1,    0.0,    0.2,  999.0,    0.0,    0.0,   -0.1,   -0.1,  999.0,  999.0,  999.0,  999.0,  999.0
2016/12/06 13:30,  999.0,  999.0,   -0.1,    0.1,   -0.1,   -0.3,    0.3,    0.4,    0.4,    0.2,    0.2,    0.6,    0.2,    0.3,    0.3,    0.2,    0.2,    0.2,   -0.1,   -0.1,   -0.2,    0.2,    0.5,   -0.4,    0.3,    0.2,   -0.2,    0.2,   -0.1,    0.1,    0.0,   -0.0,    0.1,    0.1,   -0.0,   -0.0,    0.3,   -0.0,    0.2,    0.1,   -0.2,   -0.0,   -0.2,   -0.0,    0.1,    0.0,   -0.1,   -0.1,    0.0,   -0.0,    0.1,    0.2,    0.1,   -0.2,   -0.0,   -0.1,    0.0,    0.0,    0.2,   -0.0,   -0.2,    0.1,   -0.3,  999.0,  999.0,   -0.1,  999.0,  999.0,   -0.1,    0.0,    0.0,  999.0,  999.0,   -0.0,    0.0,   -0.1,  999.0,  999.0,  999.0,  999.0
2016/12/06 13:40,  999.0,  999.0,   -0.2,    0.0,    0.0,   -0.1,   -0.1,    0.2,    0.2,    0.3,    0.6,   -0.1,    0.0,    0.1,    0.2,    0.2,    0.2,    0.4,    0.3,    0.3,    0.5,    0.4,    1.3,    1.2,    1.7,    0.7,    0.9,    0.2,   -0.1,   -0.1,   -0.0,   -0.0,   -0.1,    0.1,    0.2,   -0.1,    0.1,    0.0,    0.0,   -0.0,   -0.2,   -0.2,   -0.0,    0.1,   -0.1,   -0.0,   -0.0,    0.1,    0.0,    0.3,    0.1,   -0.0,    0.2,    0.1,    0.2,   -0.1,   -0.0,   -0.1,   -0.2,    0.2,    0.1,   -0.1,   -0.3,   -0.1,   -0.2,    0.0,   -0.0,   -0.2,   -0.3,  999.0,  999.0,    0.1,   -0.2,  999.0,    0.2,  999.0,  999.0,  999.0,  999.0,  999.0
2016/12/06 13:50,  999.0,  999.0,   -0.3,    0.1,   -0.0,  999.0,  999.0,  999.0,   -0.2,    0.1,    0.9,   -0.4,    0.2,    0.2,    0.2,  999.0,    0.6,    0.1,    0.7,    0.1,  999.0,  999.0,  999.0,   -0.2,    0.4,   -0.1,   -0.1,   -0.3,    0.1,    0.0,    0.0,    0.1,    0.0,   -0.1,    0.1,   -0.0,    0.0,   -0.1,    0.1,   -0.1,   -0.4,   -0.3,   -0.1,   -0.1,   -0.0,    0.0,   -0.2,   -0.1,    0.2,    0.1,    0.1,   -0.0,   -0.1,    0.0,    0.0,    0.0,   -0.1,    0.0,    0.0,    0.4,   -0.1,   -0.2,   -0.1,    0.0,    0.1,    0.1,   -0.0,   -0.0,   -0.1,    0.0,    0.0,    0.0,   -0.2,  999.0,   -0.1,  999.0,  999.0,  999.0,  999.0,  999.0
2016/12/06 14:00,  999.0,  999.0,   -0.3,    0.2,    0.1,    0.2,    0.4,    0.2,    0.3,    0.3,    0.6,    0.6,    0.6,    0.7,    0.5,    0.7,    0.8,    0.7,    0.3,    0.4,    0.7,  999.0,  999.0,    0.8,    0.2,    0.3,   -0.1,   -0.0,   -0.0,   -0.1,   -0.0,    0.3,   -0.0,    0.0,   -0.1,    0.0,    0.1,    0.1,   -0.0,    0.0,   -0.3,   -0.1,   -0.0,   -0.1,    0.0,    0.3,  999.0,   -0.1,   -0.0,   -0.0,    0.0,    0.2,    0.1,    0.1,    0.0,   -0.0,   -0.1,   -0.0,    0.0,   -0.1,    0.1,   -0.1,   -0.0,   -0.1,    0.0,    0.1,    0.0,    0.1,    0.1,   -0.0,  999.0,    0.1,    0.0,    0.0,  999.0,  999.0,  999.0,  999.0,  999.0,  999.0
2016/12/06 14:10,  999.0,  999.0,    0.0,    0.6,    0.2,    0.4,    0.5,    0.5,    0.6,    0.5,    0.7,    0.6,    0.5,    0.6,    0.5,    0.3,    0.2,    0.1,  999.0,    0.4,   -0.2,    1.1,    0.8,    0.8,    0.3,   -0.0,    0.1,    0.0,   -0.0,   -0.2,    0.0,   -0.1,    0.1,   -0.2,   -0.2,    0.0,   -0.4,   -0.0,   -0.2,   -0.3,   -0.3,   -0.1,   -0.2,   -0.1,    0.0,    0.1,    0.1,    0.1,    0.3,    0.0,    0.1,    0.0,   -0.1,    0.0,   -0.1,   -0.0,   -0.0,    0.0,    0.0,   -0.1,    0.0,    0.0,    0.1,  999.0,  999.0,    0.1,   -0.0,    0.0,    0.1,    0.1,   -0.3,   -0.1,  999.0,    0.0,   -0.1,  999.0,  999.0,  999.0,  999.0,  999.0
2016/12/06 14:20,  999.0,  999.0,    0.4,    0.6,    0.4,    0.4,    0.3,    0.2,    0.1,    0.2,    0.2,    0.3,    0.4,    0.5,    0.5,    0.6,    0.5,    0.6,    0.4,    0.6,    1.0,    1.0,    1.1,    0.4,    0.2,    0.1,    0.1,    0.1,    0.0,    0.1,   -0.1,   -0.1,   -0.2,   -0.3,   -0.0,   -0.0,   -0.1,    0.1,    0.1,    0.1,   -0.1,   -0.1,   -0.1,   -0.0,   -0.0,    0.1,    0.1,    0.1,    0.1,    0.0,   -0.1,   -0.1,   -0.1,   -0.1,   -0.1,    0.1,    0.1,    0.1,    0.0,   -0.1,   -0.0,    0.0,    0.0,   -0.1,  999.0,   -0.1,   -0.1,   -0.1,    0.0,   -0.1,   -0.0,    0.1,   -0.2,    0.1,   -0.1,    0.0,  999.0,  999.0,  999.0,  999.0
2016/12/06 14:30,  999.0,  999.0,   -0.1,   -0.1,    0.1,    0.2,    0.5,    0.3,    0.4,    0.4,    0.2,    0.2,    0.2,    0.2,    0.2,    0.3,    0.1,    0.0,    0.2,    0.1,    0.5,    0.5,    0.9,    0.3,    0.4,   -0.0,    0.1,   -0.1,   -0.5,   -0.0,    0.0,    0.0,    0.0,    0.0,   -0.0,   -0.2,   -0.0,    0.1,    0.1,   -0.0,   -0.1,   -0.1,   -0.0,    0.1,   -0.1,    0.1,   -0.0,    0.1,    0.1,   -0.0,    0.0,    0.0,    0.0,    0.1,   -0.1,    0.1,   -0.1,   -0.1,    0.1,   -0.1,    0.2,   -0.2,   -0.0,   -0.0,    0.1,   -0.1,   -0.0,   -0.0,   -0.1,   -0.2,   -0.0,    0.1,   -0.1,    0.0,   -0.0,   -0.3,  999.0,  999.0,  999.0,  999.0
2016/12/06 14:40,  999.0,  999.0,   -0.1,    0.1,    0.4,    0.3,    0.4,    0.3,    0.6,    0.5,    0.6,    0.2,    0.5,    0.6,    0.5,    0.4,    0.5,    0.2,    0.2,    0.2,    0.6,    0.2,   -0.0,    0.1,    0.0,   -0.1,   -0.1,   -0.0,   -0.2,   -0.1,   -0.0,   -0.1,    0.0,   -0.1,   -0.0,   -0.0,   -0.1,    0.1,    0.1,   -0.1,   -0.0,   -0.2,   -0.1,    0.0,    0.0,    0.1,    0.0,    0.2,   -0.2,   -0.0,   -0.1,   -0.0,    0.1,   -0.1,    0.0,   -0.1,    0.1,   -0.0,   -0.1,   -0.1,   -0.0,   -0.0,    0.1,   -0.1,  999.0,    0.0,   -0.1,   -0.1,   -0.1,   -0.2,   -0.4,   -0.0,    0.0,    0.1,    0.2,  999.0,   -0.0,  999.0,  999.0,  999.0
2016/12/06 14:50,  999.0,  999.0,   -0.0,    0.1,    0.5,    0.7,    0.8,    0.4,    0.6,    0.4,    0.4,    0.1,    0.3,    0.3,    0.4,    0.2,   -0.0,    0.2,  999.0,    0.8,    0.7,    0.5,    0.1,    0.1,   -0.0,    0.2,    0.0,   -0.0,    0.1,   -0.0,   -0.1,   -0.1,   -0.0,    0.0,    0.0,    0.1,   -0.2,   -0.0,    0.1,    0.0,   -0.2,   -0.2,    0.1,    0.2,   -0.1,   -0.1,    0.0,    0.1,    0.1,   -0.1,   -0.1,   -0.0,    0.0,    0.2,    0.0,   -0.1,    0.1,   -0.0,    0.0,   -0.0,    0.0,   -0.2,   -0.1,    0.0,   -0.0,    0.0,    0.0,    0.1,    0.0,    0.1,    0.0,  999.0,   -0.2,   -0.1,    0.0,    0.0,  999.0,  999.0,  999.0,  999.0
2016/12/06 15:00,  999.0,  999.0,   -0.1,   -0.0,   -0.0,  999.0,    0.2,   -0.0,    0.1,    0.1,   -0.1,    0.2,    0.0,    0.1,  999.0,    0.1,    0.1,  999.0,  999.0,    0.1,    0.4,   -0.0,    0.0,    0.0,  999.0,    0.0,   -0.0,    0.0,   -0.2,    0.1,   -0.0,   -0.0,    0.0,    0.0,   -0.1,   -0.0,    0.2,    0.1,    0.1,   -0.0,   -0.4,   -0.3,   -0.2,   -0.2,    0.1,   -0.1,   -0.0,    0.2,   -0.0,    0.1,   -0.1,   -0.1,    0.1,    0.0,    0.0,    0.2,    0.0,    0.1,   -0.2,   -0.2,    0.1,   -0.1,   -0.2,    0.1,    0.2,    0.0,    0.1,    0.1,    0.1,  999.0,   -0.3,  999.0,   -0.1,   -0.1,   -0.2,   -0.1,    0.0,  999.0,  999.0,    0.2
2016/12/06 15:10,  999.0,  999.0,   -0.0,   -0.0,    0.2,   -0.0,    0.0,    0.3,   -0.1,    0.2,    0.2,    0.3,    0.2,    0.1,    0.1,   -0.0,    0.4,    0.5,    0.3,  999.0,  999.0,   -0.0,    0.1,    0.2,    0.0,    0.1,    0.0,   -0.0,    0.0,    0.0,   -0.1,   -0.0,    0.0,   -0.1,   -0.1,   -0.1,   -0.0,   -0.1,    0.0,    0.2,   -0.2,   -0.3,   -0.1,   -0.1,   -0.0,    0.1,    0.1,    0.1,    0.1,   -0.1,   -0.1,   -0.1,    0.0,    0.3,   -0.1,   -0.1,   -0.2,   -0.1,   -0.0,   -0.0,   -0.2,    0.1,   -0.1,  999.0,  999.0,    0.2,    0.0,    0.0,    0.1,    0.0,    0.6,   -0.1,   -0.0,    0.0,   -0.1,   -0.1,  999.0,  999.0,  999.0,  999.0
2016/12/06 15:20,  999.0,  999.0,   -0.2,    0.2,    0.0,    0.2,    0.5,    0.3,    0.3,    0.5,    0.7,    0.4,    0.4,    0.5,    0.4,    0.2,    0.4,    0.1,    0.0,   -0.0,   -0.0,   -0.1,   -0.1,   -0.0,    0.0,    0.0,   -0.1,    0.0,    0.0,    0.0,    0.0,    0.0,    0.0,   -0.0,    0.0,   -0.0,    0.0,   -0.1,    0.2,   -0.0,   -0.2,   -0.1,   -0.1,   -0.1,    0.0,    0.1,    0.1,   -0.0,    0.1,   -0.0,   -0.2,   -0.0,    0.1,    0.1,   -0.2,   -0.0,   -0.0,    0.0,   -0.0,   -0.1,    0.0,   -0.0,    0.1,  999.0,    0.2,    0.2,   -0.0,   -0.1,   -0.0,  999.0,    0.0,    0.3,    0.2,    0.1,    0.0,    0.3,   -0.0,  999.0,  999.0,  999.0
2016/12/06 15:30,  999.0,  999.0,   -0.0,    0.0,    0.0,    0.1,    0.2,    0.1,    0.0,    0.2,    0.6,    0.5,    0.3,    0.4,    0.3,    0.4,    0.1,   -0.0,    0.0,    0.0,   -0.2,   -0.0,    0.1,    0.0,    0.1,   -0.0,   -0.2,   -0.1,   -0.1,   -0.0,    0.0,   -0.2,   -0.1,    0.0,    0.1,   -0.0,    0.1,   -0.1,    0.1,    0.1,   -0.1,   -0.1,    0.0,    0.1,   -0.0,    0.1,    0.1,    0.2,    0.1,    0.1,    0.1,    0.0,   -0.1,   -0.0,   -0.0,    0.1,    0.0,   -0.1,    0.0,    0.2,    0.3,   -0.2,   -0.1,   -0.1,    0.0,   -0.1,    0.1,   -0.1,  999.0,  999.0,   -0.2,    0.0,    0.1,   -0.0,    0.1,   -0.1,    0.0,  999.0,  999.0,  999.0
2016/12/06 15:40,  999.0,  999.0,   -0.1,   -0.1,   -0.2,  999.0,    0.1,    0.2,    0.3,    0.6,    0.8,    0.5,    0.3,    0.4,    0.5,    0.1,    0.1,  999.0,  999.0,   -0.0,  999.0,   -0.1,   -0.2,   -0.0,    0.1,    0.1,   -0.0,   -0.1,    0.0,    0.0,   -0.1,   -0.0,   -0.1,    0.0,    0.1,   -0.0,   -0.2,   -0.2,   -0.0,   -0.0,   -0.3,   -0.3,   -0.2,   -0.0,    0.2,    0.2,    0.1,    0.0,    0.1,    0.0,   -0.1,    0.1,   -0.0,   -0.1,   -0.2,    0.1,    0.0,   -0.1,    0.2,    0.1,   -0.1,   -0.1,   -0.2,    0.1,    0.0,   -0.0,    0.1,   -0.1,   -0.2,   -0.1,   -0.1,    0.4,   -0.2,   -0.2,   -0.2,   -0.1,   -0.1,  999.0,  999.0,  999.0
2016/12/06 15:50,  999.0,  999.0,   -0.0,    0.2,    0.0,    0.1,   -0.1,    0.1,    0.2,    0.4,    0.5,    0.2,    0.2,    0.1,    0.0,    0.1,   -0.0,   -0.0,   -0.0,    0.0,   -0.0,   -0.0,    0.1,    0.1,    0.1,    0.1,    0.1,   -0.1,   -0.1,   -0.0,    0.0,    0.0,   -0.0,   -0.0,   -0.1,   -0.0,   -0.0,   -0.0,   -0.1,    0.0,   -0.2,   -0.2,    0.1,    0.0,   -0.1,   -0.1,    0.0,   -0.1,    0.0,    0.1,   -0.1,   -0.1,   -0.0,    0.1,    0.0,   -0.0,    0.1,    0.1,    0.0,    0.2,    0.3,    0.0,   -0.0,   -0.3,    0.2,    0.1,    0.0,   -0.1,   -0.0,   -0.1,   -0.4,   -0.2,   -0.1,   -0.1,   -0.4,   -0.2,  999.0,  999.0,  999.0,    0.2
2016/12/06 16:00,  999.0,  999.0,   -0.2,   -0.2,   -0.1,    0.2,   -0.0,    0.3,    0.7,    0.5,    0.2,    0.0,  999.0,    0.2,   -0.1,    0.0,    0.0,  999.0,   -0.1,    0.1,   -0.0,   -0.0,   -0.0,   -0.0,    0.1,   -0.1,    0.0,   -0.0,   -0.0,   -0.1,    0.1,    0.0,    0.0,   -0.0,    0.0,   -0.1,    0.1,    0.1,    0.1,    0.1,   -0.3,   -0.2,    0.1,    0.0,   -0.0,    0.2,    0.2,   -0.0,    0.1,    0.2,    0.0,   -0.1,   -0.1,   -0.1,    0.1,    0.1,   -0.1,   -0.0,    0.1,    0.2,   -0.0,    0.0,    0.1,   -0.1,   -0.1,  999.0,   -0.1,   -0.3,   -0.3,    0.0,    0.2,   -0.3,    0.0,   -0.2,   -0.1,   -0.0,  999.0,  999.0,  999.0,   -0.2
2016/12/06 16:10,  999.0,  999.0,   -0.2,   -0.2,    0.1,    0.2,   -0.0,    0.3,    0.3,    0.2,    0.2,    0.2,    0.1,    0.1,   -0.2,    0.0,   -0.0,  999.0,    0.1,    0.1,   -0.1,    0.0,    0.0,  999.0,    0.1,   -0.1,    0.0,   -0.1,   -0.2,   -0.0,    0.1,   -0.1,    0.0,    0.0,   -0.0,   -0.1,    0.0,    0.1,   -0.2,   -0.2,   -0.2,   -0.1,   -0.1,    0.1,    0.1,    0.2,   -0.0,   -0.2,   -0.1,   -0.1,   -0.0,   -0.0,    0.0,    0.1,    0.0,    0.2,   -0.0,   -0.0,   -0.1,    0.1,   -0.1,   -0.3,    0.1,   -0.0,    0.1,    0.2,    0.1,    0.0,   -0.0,   -0.4,  999.0,   -0.2,   -0.1,    0.0,   -0.0,   -0.1,  999.0,  999.0,  999.0,  999.0
2016/12/06 16:20,  999.0,  999.0,   -0.1,    0.1,    0.1,    0.1,    0.0,    0.1,    0.0,    0.1,    0.0,    0.0,   -0.1,  999.0,    0.0,    0.0,  999.0,    0.1,    0.1,    0.2,    0.0,   -0.0,   -0.1,    0.0,   -0.0,   -0.1,   -0.2,   -0.0,    0.0,   -0.1,   -0.1,    0.0,    0.0,    0.1,    0.1,    0.1,    0.0,    0.0,    0.1,   -0.1,   -0.3,   -0.2,    0.1,    0.1,    0.0,    0.0,   -0.1,    0.1,    0.1,   -0.0,   -0.1,   -0.0,    0.1,    0.1,    0.1,    0.0,   -0.1,    0.1,    0.1,    0.1,    0.1,   -0.1,   -0.0,    0.1,   -0.1,   -0.3,    0.1,    0.3,   -0.3,   -0.2,  999.0,    0.0,    0.0,   -0.4,    0.1,   -0.1,  999.0,  999.0,  999.0,  999.0
2016/12/06 16:30,  999.0,  999.0,   -0.2,    0.1,    0.1,  999.0,   -0.0,    0.3,    0.1,    0.2,    0.1,    0.1,    0.2,    0.2,    0.3,  999.0,  999.0,  999.0,  999.0,  999.0,    0.0,    0.1,    0.1,    0.1,   -0.0,   -0.1,   -0.0,   -0.0,   -0.0,    0.0,   -0.1,    0.0,   -0.1,   -0.0,   -0.1,   -0.1,    0.1,   -0.1,   -0.1,   -0.1,   -0.2,   -0.1,    0.0,   -0.1,   -0.0,    0.1,    0.1,   -0.0,    0.0,    0.2,    0.0,   -0.0,   -0.0,   -0.1,    0.0,    0.1,   -0.0,    0.1,    0.0,    0.1,   -0.1,   -0.1,   -0.1,    0.0,  999.0,    0.0,    0.1,   -0.1,    0.1,    0.1,    0.1,   -0.0,  999.0,  999.0,    0.0,  999.0,  999.0,  999.0,  999.0,  999.0
2016/12/06 16:40,  999.0,  999.0,   -0.3,   -0.1,   -0.1,    0.0,    0.2,    0.1,    0.2,    0.1,    0.2,    0.2,    0.1,    0.0,   -0.0,    0.1,  999.0,    0.1,    0.1,    0.1,  999.0,    0.1,   -0.0,   -0.0,   -0.1,    0.1,   -0.0,   -0.1,   -0.0,    0.1,    0.1,   -0.0,   -0.0,    0.1,   -0.0,   -0.0,    0.2,   -0.0,   -0.0,   -0.1,   -0.3,   -0.3,   -0.0,    0.1,    0.1,   -0.1,   -0.1,   -0.0,    0.0,    0.1,    0.0,   -0.1,    0.1,   -0.0,   -0.1,    0.1,   -0.1,   -0.2,   -0.1,    0.1,    0.1,   -0.0,   -0.1,   -0.0,   -0.0,    0.0,    0.1,   -0.1,    0.1,   -0.1,   -0.0,   -0.1,   -0.2,   -0.1,   -0.2,    0.3,  999.0,  999.0,  999.0,  999.0
2016/12/06 16:50,  999.0,  999.0,   -0.1,   -0.1,    0.3,    0.1,    0.3,    0.1,    0.5,    0.5,    0.6,    0.4,    0.3,    0.3,    0.1,    0.3,    0.5,    0.5,    0.3,   -0.2,   -0.2,    0.0,    0.0,    0.1,    0.0,    0.1,    0.0,   -0.1,   -0.0,    0.0,   -0.1,   -0.1,   -0.1,   -0.0,    0.0,    0.0,    0.0,   -0.1,   -0.2,   -0.0,   -0.2,    0.1,    0.1,   -0.0,    0.1,   -0.0,   -0.2,   -0.1,    0.1,    0.2,    0.0,   -0.0,    0.1,    0.1,   -0.0,    0.0,    0.1,   -0.1,   -0.2,   -0.1,    0.0,   -0.0,    0.0,    0.1,   -0.1,   -0.1,   -0.0,   -0.0,  999.0,    0.0,   -0.0,   -0.2,   -0.1,    0.1,    0.1,  999.0,  999.0,  999.0,  999.0,  999.0
2016/12/06 17:00,  999.0,  999.0,    0.1,    0.1,    0.2,    0.3,    0.3,    0.2,    0.4,    0.3,    0.1,    0.2,    0.3,    0.2,    0.4,    0.2,   -0.1,    0.1,  999.0,  999.0,  999.0,   -0.1,   -0.0,   -0.1,  999.0,    0.2,   -0.1,   -0.1,   -0.0,    0.0,    0.1,    0.0,   -0.0,    0.1,   -0.1,   -0.0,   -0.1,    0.0,   -0.1,   -0.1,   -0.2,   -0.3,   -0.1,    0.1,    0.2,    0.0,   -0.1,    0.0,   -0.1,    0.1,    0.0,    0.0,   -0.0,    0.0,   -0.1,    0.1,   -0.1,    0.3,   -0.1,    0.3,    0.0,   -0.1,   -0.0,    0.1,   -0.0,   -0.1,    0.0,   -0.1,    0.2,    0.2,    0.1,  999.0,   -0.2,   -0.3,   -0.1,  999.0,  999.0,  999.0,  999.0,  999.0
2016/12/06 17:10,  999.0,  999.0,   -0.2,    0.1,    0.2,    0.3,    0.3,    0.1,    0.2,    0.2,    0.3,    0.1,    0.1,    0.2,    0.3,    0.3,    0.2,    0.2,    0.2,    0.1,   -0.0,   -0.1,   -0.1,   -0.2,   -0.5,    0.0,    0.1,    0.0,    0.0,    0.0,   -0.0,   -0.1,   -0.0,    0.0,    0.0,    0.1,   -0.0,    0.0,   -0.1,   -0.0,   -0.8,   -0.5,    0.0,    0.1,    0.1,    0.1,  999.0,    0.1,    0.3,   -0.0,   -0.1,    0.0,    0.1,    0.0,    0.0,    0.0,    0.1,    0.2,   -0.2,    0.1,   -0.1,   -0.1,   -0.0,    0.0,  999.0,   -0.1,    0.1,   -0.1,   -0.2,   -0.0,  999.0,   -0.4,   -0.0,    0.0,    0.0,    0.1,  999.0,  999.0,  999.0,  999.0
2016/12/06 17:20,  999.0,  999.0,   -0.2,    0.1,    0.5,    0.2,    0.0,    0.0,    0.3,    0.5,    0.3,    0.2,    0.0,    0.0,    0.3,    0.3,    0.2,    0.0,    0.1,    0.3,    0.0,    0.0,   -0.0,   -0.0,    0.1,   -0.0,   -0.0,   -0.2,   -0.2,   -0.1,   -0.1,   -0.1,   -0.3,    0.0,   -0.0,   -0.0,   -0.0,   -0.1,   -0.0,    0.0,   -0.5,   -0.2,    0.0,   -0.0,   -0.1,    0.0,   -0.1,   -0.0,   -0.0,    0.1,    0.3,    0.2,   -0.1,    0.2,    0.1,   -0.2,   -0.0,   -0.1,   -0.1,   -0.2,    0.1,    0.1,   -0.2,   -0.0,    0.0,  999.0,   -0.1,    0.3,    0.2,    0.4,    0.1,  999.0,  999.0,  999.0,   -0.1,  999.0,  999.0,  999.0,  999.0,  999.0
2016/12/06 17:30,  999.0,  999.0,   -0.2,    0.3,    0.5,    0.3,    0.2,    0.2,    0.1,    0.1,    0.0,   -0.0,    0.2,    0.2,    0.0,    0.0,    0.3,    0.4,    0.2,    0.1,    0.0,   -0.0,   -0.1,   -0.0,    0.0,   -0.1,   -0.0,    0.2,   -0.1,   -0.0,    0.0,   -0.2,    0.1,   -0.0,    0.2,   -0.1,   -0.1,   -0.1,   -0.1,    0.2,   -0.4,   -0.2,    0.3,    0.2,   -0.2,    0.0,   -0.3,   -0.3,    0.0,   -0.1,   -0.0,    0.2,    0.1,   -0.0,    0.2,   -0.1,   -0.0,    0.1,    0.1,   -0.2,    0.0,    0.0,   -0.0,   -0.0,   -0.2,    0.1,    0.3,   -0.4,   -0.3,   -0.1,   -0.1,   -0.2,    0.1,   -0.0,   -0.1,    0.1,  999.0,  999.0,  999.0,  999.0
2016/12/06 17:40,  999.0,   -0.4,   -0.0,   -0.2,   -0.0,    0.0,    0.0,    0.1,    0.1,    0.1,    0.2,    0.3,    0.2,    0.2,    0.2,    0.1,    0.1,   -0.0,   -0.3,   -0.3,    0.1,    0.1,    0.1,    0.0,    0.1,   -0.0,   -0.2,   -0.0,    0.0,   -0.2,    0.0,    0.0,    0.1,   -0.1,   -0.1,   -0.2,   -0.0,    0.1,    0.2,    0.0,   -0.7,   -0.6,   -0.1,   -0.0,    0.0,    0.0,   -0.1,   -0.1,   -0.0,   -0.1,   -0.1,   -0.1,   -0.1,    0.1,   -0.0,    0.1,    0.2,    0.1,    0.0,   -0.1,    0.0,    0.1,    0.0,   -0.0,   -0.0,   -0.0,   -0.1,  999.0,    0.2,    0.0,   -0.2,    0.1,    0.1,   -0.1,    0.3,  999.0,  999.0,  999.0,  999.0,  999.0
2016/12/06 17:50,  999.0,  999.0,   -0.0,    0.0,    0.0,   -0.0,   -0.0,    0.0,    0.2,   -0.0,    0.1,    0.0,    0.0,    0.0,    0.1,   -0.0,    0.1,   -0.1,   -0.3,   -0.1,   -0.2,    0.2,    0.0,    0.0,   -0.0,    0.1,    0.1,   -0.0,   -0.0,   -0.1,   -0.1,   -0.0,    0.0,   -0.0,   -0.1,    0.1,   -0.1,    0.0,   -0.1,   -0.0,   -0.2,   -0.4,   -0.0,    0.1,   -0.0,   -0.1,   -0.0,    0.1,    0.2,   -0.0,   -0.1,   -0.0,    0.1,    0.1,    0.0,   -0.1,   -0.2,   -0.0,    0.1,   -0.0,    0.1,    0.2,    0.1,   -0.0,   -0.2,   -0.0,    0.1,   -0.1,    0.1,    0.2,   -0.1,   -0.2,  999.0,   -0.1,  999.0,   -0.2,  999.0,  999.0,  999.0,  999.0
2016/12/06 18:00,  999.0,  999.0,   -0.0,    0.2,    0.1,   -0.0,   -0.1,    0.0,   -0.1,    0.0,    0.0,   -0.0,    0.1,    0.1,    0.0,  999.0,   -0.2,   -0.0,    0.1,    0.1,    0.0,    0.1,   -0.0,  999.0,    0.0,   -0.1,   -0.1,   -0.2,    0.0,    0.1,   -0.0,   -0.0,    0.0,    0.0,    0.1,    0.0,    0.0,    0.0,   -0.0,   -0.0,   -0.3,   -0.2,   -0.0,    0.1,   -0.0,    0.0,    0.2,    0.0,    0.0,   -0.1,   -0.0,   -0.0,    0.1,    0.1,   -0.0,    0.0,    0.0,   -0.1,    0.1,    0.0,    0.1,   -0.1,   -0.1,    0.0,   -0.1,   -0.1,   -0.1,    0.0,    0.0,   -0.4,   -0.2,    0.1,  999.0,    0.0,   -0.1,  999.0,  999.0,  999.0,  999.0,  999.0
2016/12/06 18:10,  999.0,  999.0,   -0.1,   -0.0,    0.1,   -0.0,    0.0,    0.1,   -0.2,   -0.3,  999.0,   -0.1,   -0.2,   -0.2,   -0.1,   -0.1,   -0.2,   -0.5,  999.0,   -0.0,   -0.1,   -0.1,    0.0,   -0.1,   -0.0,   -0.1,    0.1,   -0.2,   -0.1,   -0.0,   -0.0,   -0.0,   -0.0,   -0.0,   -0.0,   -0.1,   -0.0,    0.0,   -0.1,   -0.1,   -0.1,   -0.1,    0.3,    0.1,    0.0,    0.2,    0.3,    0.0,   -0.1,    0.1,    0.2,    0.1,   -0.0,    0.2,   -0.1,   -0.1,    0.1,   -0.1,    0.3,    0.2,   -0.1,    0.2,   -0.0,    0.4,    0.0,    0.0,    0.1,   -0.1,    0.2,    0.2,  999.0,  999.0,   -0.2,    0.3,    0.2,    0.2,  999.0,  999.0,  999.0,  999.0
2016/12/06 18:20,  999.0,    0.1,   -0.2,    0.1,    0.1,   -0.0,   -0.1,    0.1,   -0.0,    0.1,    0.2,    0.4,    0.1,    0.2,    0.1,    0.1,   -0.1,   -0.2,   -0.1,   -0.1,   -0.1,    0.1,   -0.0,    0.1,    0.0,    0.0,   -0.1,    0.1,    0.2,    0.2,   -0.1,   -0.1,    0.1,   -0.1,   -0.2,   -0.0,   -0.1,   -0.1,   -0.1,   -0.0,   -0.3,   -0.2,   -0.0,    0.1,   -0.0,   -0.1,   -0.2,   -0.1,   -0.0,    0.2,   -0.1,   -0.0,    0.0,    0.1,   -0.4,   -0.1,   -0.0,    0.4,    0.2,   -0.1,    0.2,    0.0,   -0.5,   -0.2,   -0.0,   -0.2,   -0.0,   -0.2,   -0.4,  999.0,   -0.0,   -0.1,  999.0,    0.6,  999.0,  999.0,  999.0,  999.0,  999.0,  999.0
2016/12/06 18:30,  999.0,   -0.1,   -0.0,    0.2,    0.1,    0.2,    0.2,  999.0,    0.4,    0.2,    0.1,    0.3,    0.2,    0.1,    0.0,   -0.0,    0.0,   -0.1,   -0.2,   -0.3,   -0.0,    0.1,    0.0,    0.0,    0.0,   -0.2,   -0.3,    0.0,   -0.1,   -0.1,    0.0,   -0.0,   -0.1,   -0.0,   -0.0,    0.3,   -0.2,    0.4,    0.2,   -0.0,   -0.1,   -0.1,    0.0,    0.1,   -0.2,   -0.2,    0.2,    0.1,    0.1,    0.2,    0.2,    0.2,   -0.1,    0.3,   -0.2,   -0.2,   -0.0,   -0.2,   -0.2,   -0.2,    0.0,   -0.3,   -0.0,   -0.1,    0.2,   -0.1,   -0.2,    0.2,    0.3,    0.5,    0.2,    0.4,    0.3,  999.0,  999.0,  999.0,  999.0,  999.0,  999.0,  999.0
2016/12/06 18:40,  999.0,   -0.1,   -0.1,    0.3,    0.1,    0.1,    0.1,    0.2,    0.2,    0.3,    0.5,    0.3,    0.5,    0.6,    0.7,    0.5,    0.4,    0.4,    0.2,    0.0,    0.1,    0.1,   -0.0,   -0.1,    0.0,   -0.0,    0.1,    0.1,    0.1,    0.1,    0.1,    0.1,    0.3,   -0.1,    0.1,    0.2,    0.3,    0.1,    0.1,   -0.0,   -0.1,  999.0,   -0.0,   -0.3,    0.1,    0.1,   -0.0,   -0.1,   -0.1,   -0.2,    0.1,    0.3,  999.0,    0.3,    0.1,    0.1,    0.1,   -0.0,   -0.2,    0.1,    0.2,    0.1,   -0.1,    0.0,    0.2,   -0.1,    0.3,    0.0,    0.4,   -0.2,   -0.3,   -0.0,  999.0,  999.0,  999.0,  999.0,  999.0,  999.0,  999.0,  999.0
2016/12/06 18:50,  999.0,   -0.0,    0.1,    0.0,    0.2,    0.3,    0.1,   -0.0,    0.1,    0.1,    0.3,    0.1,    0.2,    0.5,    0.5,    0.4,    0.2,    0.2,    0.2,    0.5,    0.2,    0.3,    0.1,    0.1,    0.0,    0.0,   -0.1,    0.1,    0.0,   -0.1,   -0.1,   -0.0,    0.0,  999.0,    0.5,   -0.3,   -0.1,   -0.2,   -0.6,   -0.0,  999.0,   -0.4,   -0.2,   -0.0,   -0.0,    0.2,   -0.1,   -0.1,    0.1,    0.1,    0.0,    0.1,    0.2,   -0.2,  999.0,    0.2,    0.1,   -0.0,   -0.0,    0.0,   -0.3,   -0.0,    0.1,    0.2,   -0.2,   -0.0,   -0.0,  999.0,   -0.1,  999.0,  999.0,  999.0,   -0.1,   -0.1,  999.0,  999.0,    0.0,  999.0,  999.0,  999.0
2016/12/06 19:00,  999.0,   -0.0,    0.1,    0.2,    0.2,    0.1,    0.3,    0.1,    0.1,    0.3,    0.3,    0.3,    0.6,    0.9,    0.5,    0.3,    0.3,    0.2,    0.3,    0.1,    0.0,    0.0,    0.2,    0.1,   -0.1,    0.2,    0.0,   -0.1,    0.0,   -0.1,   -0.1,    0.1,   -0.0,   -0.2,   -0.1,    0.5,    0.2,    0.4,   -0.2,   -0.1,   -0.1,   -0.4,    0.1,    0.2,    0.4,   -0.4,   -0.0,   -0.1,    0.0,    0.0,    0.1,  999.0,    0.2,    0.5,   -0.2,   -0.0,    0.0,    0.2,    0.0,    0.3,    0.2,    0.0,    0.3,    0.3,    0.1,    0.4,    0.4,   -0.0,   -0.0,  999.0,   -0.7,  999.0,    0.2,  999.0,    0.3,  999.0,  999.0,  999.0,  999.0,  999.0
2016/12/06 19:10,  999.0,   -0.0,   -0.1,    0.2,    0.2,    0.2,    0.1,    0.1,    0.2,    0.3,    0.2,    0.2,    0.2,    0.0,    0.1,    0.1,   -0.1,    0.1,   -0.1,    0.3,    0.3,    0.0,   -0.1,   -0.2,   -0.1,   -0.1,   -0.1,    0.0,    0.0,    0.1,   -0.1,  999.0,   -0.2,   -0.1,  999.0,   -0.2,    0.1,   -0.1,   -0.1,    0.2,    0.1,   -0.1,   -0.0,   -0.1,   -0.2,    0.2,   -0.1,   -0.1,   -0.0,   -0.3,   -0.0,   -0.0,   -0.0,   -0.0,   -0.0,    0.2,    0.2,  999.0,    0.1,   -0.1,   -0.1,   -0.1,    0.1,    0.2,   -0.2,   -0.2,  999.0,  999.0,  999.0,  999.0,    0.3,    0.3,  999.0,  999.0,  999.0,  999.0,  999.0,  999.0,  999.0,  999.0
2016/12/06 19:20,  999.0,   -0.1,    0.3,    0.6,    0.4,    0.4,    0.6,    0.4,    0.4,    0.6,    0.3,    0.6,    0.2,    0.3,    0.1,   -0.1,   -0.4,   -1.1,   -1.4,   -0.1,   -0.4,   -0.0,   -0.0,   -0.1,    0.1,    0.1,    0.0,   -0.1,    0.1,    0.0,   -0.1,  999.0,    0.3,    0.2,    0.1,    0.0,  999.0,    0.3,   -0.0,    0.0,   -0.3,   -0.6,   -0.2,   -0.1,    0.1,   -0.1,   -0.1,   -0.2,    0.0,   -0.1,   -0.3,  999.0,    0.0,   -0.3,    0.1,   -0.1,   -0.3,   -0.2,    0.1,   -0.1,    0.2,    0.3,   -0.1,  999.0,  999.0,    0.1,    0.2,   -0.0,  999.0,  999.0,   -0.0,  999.0,  999.0,  999.0,   -0.1,  999.0,  999.0,  999.0,  999.0,  999.0
2016/12/06 19:30,  999.0,    0.2,    0.3,    0.1,    0.2,    0.1,    0.2,   -0.0,    0.1,    0.2,    0.3,    0.3,    0.2,    0.3,    0.4,    0.4,  999.0,    0.4,    0.4,   -0.2,   -0.4,   -0.4,    0.1,   -0.1,   -0.1,   -0.1,    0.1,   -0.0,   -0.2,    0.0,    0.0,   -0.2,    0.2,   -0.2,  999.0,    0.1,    0.4,    0.2,    0.1,    0.1,   -0.3,   -0.5,  999.0,    0.1,    0.0,    0.0,   -0.0,    0.1,   -0.1,  999.0,   -0.0,    0.4,    0.2,    0.2,    0.2,    0.1,   -0.1,    0.1,   -0.2,    0.2,    0.3,   -0.0,  999.0,   -0.1,    0.1,  999.0,   -0.1,  999.0,  999.0,  999.0,   -0.4,  999.0,   -0.1,  999.0,   -0.5,  999.0,  999.0,  999.0,  999.0,  999.0
2016/12/06 19:40,  999.0,  999.0,    0.4,    0.4,    0.1,    0.1,    0.2,    0.2,    0.2,    0.5,    0.4,    0.4,    0.2,    0.2,    0.2,    0.8,    1.0,    0.6,    0.7,    0.4,    1.2,    1.1,    0.2,   -0.1,    0.1,   -0.0,    0.0,    0.0,   -0.0,   -0.1,   -0.0,    0.2,   -0.1,    0.6,   -0.2,    0.2,  999.0,   -0.4,    0.0,    0.0,   -0.3,   -1.0,  999.0,    0.0,   -0.0,   -0.0,   -0.0,    0.1,    0.0,    0.2,   -0.2,   -0.0,   -0.1,    0.1,    0.0,    0.0,   -0.1,    0.3,   -0.1,    0.4,    0.1,    0.2,   -0.0,    0.1,   -0.2,   -0.1,    0.2,    0.2,   -0.0,  999.0,  999.0,  999.0,   -0.0,   -0.2,   -0.0,  999.0,  999.0,  999.0,  999.0,  999.0
2016/12/06 19:50,  999.0,   -0.1,    0.4,    0.2,    0.4,    0.3,    0.2,    0.2,    0.2,    0.3,    0.1,    0.2,    0.3,    0.5,    0.9,    0.8,    0.9,    1.1,    1.2,    1.7,    1.7,    2.2,    0.7,    0.4,    0.3,    0.0,   -0.1,    0.0,   -0.1,    0.1,    0.0,   -0.2,    0.0,  999.0,   -0.0,   -0.0,    0.2,    0.1,   -0.3,   -0.2,   -0.3,   -0.3,    0.1,  999.0,    0.1,    0.1,    0.3,   -0.2,    0.2,  999.0,    0.1,    0.2,   -0.3,    0.2,   -0.0,   -0.2,   -0.2,    0.0,    0.1,    0.0,   -0.0,    0.4,   -0.2,   -0.2,   -0.1,    0.3,    0.1,    0.0,   -0.2,  999.0,    0.0,    0.2,   -0.1,   -0.0,   -0.1,  999.0,  999.0,  999.0,  999.0,  999.0
2016/12/06 20:00,  999.0,    0.0,    0.4,    0.8,    0.4,    0.7,    0.5,    0.6,    0.6,    0.4,    0.9,    1.1,    0.9,    0.6,    0.9,    1.0,    1.4,    2.7,    2.8,  999.0,  999.0,  999.0,  999.0,    1.2,   -0.1,   -0.0,    0.1,    0.1,    0.3,   -0.1,    0.2,    0.2,    0.1,  999.0,  999.0,  999.0,    0.0,   -0.1,   -0.3,  999.0,   -0.6,   -0.4,    0.1,  999.0,   -0.2,   -0.0,    0.2,   -0.1,   -0.1,    0.3,   -0.6,   -0.1,    0.1,    0.0,    0.1,   -0.1,    0.0,   -0.2,   -0.2,   -0.2,   -0.1,   -0.4,    0.1,    0.3,    0.5,   -0.1,    0.0,    0.1,    0.4,  999.0,  999.0,  999.0,    0.1,    0.0,    0.2,    0.1,  999.0,  999.0,  999.0,  999.0
2016/12/06 20:10,  999.0,    0.1,    0.5,    1.0,    0.5,    0.6,    0.5,    0.3,    0.4,    0.1,    0.7,    0.8,    0.7,    1.3,    0.8,    0.6,    0.8,    1.5,    1.9,    2.9,    2.8,    3.7,    2.8,    0.5,    0.3,    0.1,   -0.1,    0.2,    0.2,    0.1,   -0.0,    0.3,    0.0,    0.3,   -0.0,  999.0,  999.0,    0.0,    0.0,    0.1,   -0.6,   -0.5,   -0.1,   -0.4,   -0.1,   -0.3,   -0.1,   -0.1,   -0.0,  999.0,   -0.3,   -0.2,    0.2,    0.2,    0.3,   -0.0,   -0.0,    0.2,    0.0,    0.4,    0.1,   -0.0,   -0.0,    0.1,    0.0,    0.4,   -0.5,   -0.3,    0.1,   -0.1,    0.1,    0.0,  999.0,    0.3,   -0.0,  999.0,  999.0,  999.0,  999.0,  999.0
2016/12/06 20:20,  999.0,    0.3,    0.0,    0.7,    0.4,    0.2,    0.4,    0.1,   -0.0,    0.7,    1.3,    1.2,    1.0,    1.0,    1.8,    1.3,    0.5,    0.7,    1.3,    1.3,    2.5,    3.8,    2.1,    0.6,    0.5,   -0.1,    0.2,    0.4,    0.3,   -0.0,    0.2,    0.1,    0.4,    0.0,   -0.3,    0.2,    0.3,    0.0,    0.1,    0.1,   -0.4,   -0.5,   -0.1,   -0.0,    0.2,    0.4,    0.0,   -0.1,    0.1,   -0.3,   -0.0,   -0.0,    0.1,    0.2,    0.3,    0.3,    0.1,   -0.2,   -0.1,   -0.2,    0.0,   -0.0,    0.1,    0.3,    0.1,    0.2,    0.0,    0.2,    0.2,  999.0,    0.0,   -0.2,   -0.3,    0.0,  999.0,  999.0,  999.0,  999.0,  999.0,  999.0
2016/12/06 20:30,  999.0,   -0.0,    0.2,    0.5,    0.3,   -0.4,   -0.1,    0.1,    0.1,  999.0,   -0.3,    0.9,    0.5,  999.0,    0.7,    0.9,    1.1,    1.7,    1.7,    2.5,    2.8,    6.6,    5.7,    6.3,    3.4,    1.6,   -0.1,   -0.0,   -0.2,    0.1,   -0.0,    0.0,    0.1,    0.0,   -0.0,    0.0,   -0.0,    0.1,   -0.5,   -0.5,   -0.6,   -0.5,    0.2,    0.2,    0.0,    0.1,    0.1,   -0.0,   -0.0,   -0.1,    0.4,   -0.1,    0.2,    0.1,   -0.2,    0.1,   -0.1,   -0.1,   -0.1,   -0.2,    0.0,    0.1,   -0.0,  999.0,    0.1,    0.3,    0.3,   -0.2,   -0.2,    0.2,    0.0,    0.0,    0.0,   -0.1,  999.0,  999.0,  999.0,  999.0,  999.0,  999.0
2016/12/06 20:40,  999.0,   -0.0,    0.2,    0.4,    0.0,    0.1,   -0.2,   -0.3,   -0.1,   -0.0,    0.3,    0.8,    1.5,   -0.0,    0.9,    0.8,    1.1,    1.3,    2.6,    3.2,    3.0,    4.8,    8.2,    8.3,    2.8,    0.8,    0.2,    0.0,    0.1,    0.1,    0.1,    0.2,    0.1,   -0.0,   -0.0,   -0.1,   -0.2,    0.1,    0.3,    0.4,   -0.5,   -0.3,    0.2,    0.1,    0.1,    0.0,   -0.2,    0.1,   -0.2,   -0.2,   -0.0,    0.1,    0.0,    0.1,    0.0,    0.0,    0.1,    0.0,   -0.1,   -0.1,    0.1,   -0.0,   -0.0,    0.2,   -0.0,   -0.1,   -0.1,    0.1,  999.0,  999.0,   -0.0,  999.0,  999.0,  999.0,   -0.2,  999.0,  999.0,  999.0,  999.0,  999.0
2016/12/06 20:50,  999.0,    0.2,    0.2,    0.0,   -0.0,   -0.2,   -0.0,    0.1,   -0.1,   -0.1,   -0.1,    0.3,    0.1,   -0.1,    0.0,    0.1,    0.9,    1.5,    1.8,    1.9,    3.1,    6.2,    6.6,    6.0,    2.0,    0.2,    0.3,    0.0,   -0.3,    0.1,    0.1,    0.0,    0.2,    0.0,    0.1,  999.0,  999.0,  999.0,    0.1,    0.1,   -0.3,   -0.3,   -0.1,    0.2,   -0.1,   -0.3,   -0.0,   -0.3,    0.1,    0.1,    0.2,    0.3,    0.2,    0.1,   -0.1,    0.0,   -0.2,   -0.1,   -0.1,   -0.1,    0.1,    0.1,   -0.0,    0.0,   -0.2,    0.3,    0.6,    0.2,   -0.0,    0.0,   -0.0,  999.0,   -0.1,   -0.1,  999.0,  999.0,  999.0,  999.0,  999.0,  999.0
2016/12/06 21:00,  999.0,    0.5,    0.4,    0.8,    0.1,   -0.1,    0.0,    0.0,    0.3,    0.0,   -0.2,   -0.1,   -0.1,    0.0,    1.2,    0.7,    0.7,    0.5,    1.5,    0.9,    3.2,    6.0,    8.5,    7.2,    2.0,    0.1,   -0.0,    0.1,   -0.0,    0.2,   -0.3,   -0.1,   -0.2,   -0.5,    0.0,    0.1,   -0.0,    0.2,   -0.1,    0.1,   -0.5,    0.0,    0.1,   -0.1,   -0.2,    0.1,    0.1,    0.3,    0.2,   -0.0,    0.0,   -0.2,    0.2,    0.1,   -0.2,   -0.2,    0.0,   -0.2,    0.1,   -0.1,   -0.1,   -0.2,   -0.1,   -0.2,    0.0,   -0.2,   -0.2,   -0.3,   -0.1,  999.0,  999.0,  999.0,   -0.1,  999.0,   -0.1,  999.0,  999.0,  999.0,  999.0,  999.0
2016/12/06 21:10,  999.0,   -0.0,    0.1,    0.7,   -0.0,    0.0,    0.0,   -0.1,   -0.1,    0.0,    0.0,    0.5,    0.5,    1.2,    1.5,    0.7,    0.2,    0.4,    0.4,    0.8,    2.3,    8.7,   11.1,    6.6,    1.5,   -0.1,   -0.1,    0.1,    0.3,   -0.0,    0.3,   -0.3,    0.1,   -0.0,    0.0,    0.0,   -0.1,   -0.0,    0.1,    0.4,   -0.3,   -0.4,   -0.0,    0.2,    0.1,   -0.0,   -0.0,    0.2,    0.1,   -0.0,   -0.0,    0.1,    0.3,   -0.2,    0.1,    0.0,    0.1,   -0.4,   -0.2,   -0.1,    0.0,   -0.2,    0.0,    0.0,    0.0,    0.1,   -0.2,   -0.1,   -0.1,  999.0,  999.0,  999.0,    0.1,    0.1,  999.0,  999.0,  999.0,  999.0,  999.0,  999.0
2016/12/06 21:20,  999.0,   -0.5,   -0.3,    0.0,    0.1,    0.0,    0.0,   -0.0,    0.1,    0.1,    0.5,   -0.0,    0.3,    0.9,    0.7,    1.2,    0.3,    1.3,    0.9,    1.7,    3.2,  999.0,   10.0,    4.7,    1.2,    0.2,    0.2,   -0.1,    0.2,    0.1,    0.1,    0.1,    0.0,  999.0,  999.0,  999.0,   -0.2,    0.0,    0.0,   -0.0,   -0.5,   -0.1,    0.3,    0.2,    0.1,   -0.0,   -0.1,   -0.0,   -0.1,    0.0,   -0.0,   -0.1,   -0.1,   -0.1,    0.0,    0.1,   -0.0,    0.1,    0.3,   -0.2,   -0.1,    0.1,    0.1,    0.0,   -0.1,    0.0,    0.1,  999.0,    0.0,  999.0,    0.1,   -0.1,   -0.2,    0.1,   -0.1,  999.0,  999.0,  999.0,  999.0,  999.0
2016/12/06 21:30,  999.0,    0.8,   -0.7,   -0.2,   -0.2,    0.3,    0.2,    0.4,    1.3,    1.7,    1.2,   -1.4,    0.0,   -0.2,    0.5,   -0.1,    0.6,    1.2,    2.3,    3.7,    4.9,  999.0,  999.0,  999.0,    1.6,    0.3,   -0.1,    0.3,    0.0,    0.1,   -0.0,    0.2,    0.3,    0.1,    0.2,  999.0,    0.3,    0.0,    0.2,    0.0,   -0.5,   -0.5,   -0.3,    0.0,    0.0,    0.1,   -0.0,   -0.2,   -0.1,   -0.0,    0.0,    0.0,   -0.1,    0.0,    0.0,   -0.0,    0.0,    0.1,   -0.1,    0.1,    0.0,   -0.2,   -0.3,    0.0,    0.1,   -0.0,   -0.4,    0.2,  999.0,  999.0,  999.0,   -0.4,   -0.0,    0.2,  999.0,  999.0,  999.0,  999.0,  999.0,  999.0
2016/12/06 21:40,  999.0,   -0.3,    1.2,    0.8,    0.5,    0.7,    0.4,   -0.6,   -0.0,    1.6,    1.0,   -0.7,   -0.7,    0.6,    0.3,    1.0,    1.5,    1.1,    2.9,    4.9,    4.6,  999.0,  999.0,  999.0,    1.2,    0.1,    0.1,    0.3,    1.0,    0.0,    0.0,   -0.0,  999.0,   -0.0,    0.1,   -0.1,    0.1,    0.1,   -0.1,   -0.2,   -0.6,   -0.6,  999.0,    0.2,   -0.1,    0.3,    0.1,    0.1,    0.3,   -0.0,   -0.0,   -0.2,    0.1,   -0.1,    0.2,    0.1,   -0.4,    0.1,    0.1,   -0.1,   -0.1,   -0.1,   -0.2,    0.1,   -0.1,    0.0,    0.4,    0.0,  999.0,  999.0,  999.0,  999.0,   -0.2,  999.0,  999.0,  999.0,  999.0,  999.0,  999.0,  999.0
2016/12/06 21:50,  999.0,  999.0,    0.1,    0.0,    0.1,    0.2,    0.1,    0.2,   -0.1,   -1.7,    0.3,   -0.6,   -0.3,   -0.2,    0.6,    0.4,    0.4,    1.9,    2.9,    2.4,    1.4,  999.0,  999.0,  999.0,    0.1,    0.0,    0.0,    0.2,    0.0,   -0.0,    0.0,    0.1,    0.0,    0.3,    0.5,   -0.1,   -0.3,   -0.3,   -0.2,    0.1,  999.0,   -0.2,   -0.0,  999.0,   -0.3,    0.1,    0.0,    0.5,   -0.2,    0.3,  999.0,    0.1,   -0.3,   -0.0,    0.5,    0.0,    0.1,   -0.1,   -0.2,   -0.0,    0.4,    0.4,    0.0,    0.2,  999.0,   -0.2,    0.1,    0.1,  999.0,  999.0,    0.1,  999.0,  999.0,  999.0,  999.0,  999.0,  999.0,  999.0,  999.0,  999.0
2016/12/06 22:00,  999.0,   -0.9,   -0.3,    0.1,   -0.2,   -0.1,    0.1,    0.1,   -0.1,   -0.6,   -0.6,   -0.1,    0.0,    0.6,    0.1,    0.5,    1.6,    2.4,    4.5,    4.8,    4.1,    5.8,  999.0,  999.0,    1.3,    0.2,    0.1,    0.0,   -0.1,   -0.0,   -0.1,    0.2,    0.2,    0.3,   -0.0,  999.0,   -0.1,   -0.4,  999.0,   -0.3,   -0.7,   -0.3,    0.4,    0.1,   -0.2,    0.1,    0.1,   -0.2,    0.1,    0.2,    0.2,   -0.0,   -0.1,    0.1,    0.3,   -0.1,   -0.2,    0.0,   -0.1,    0.1,    0.1,   -0.2,    0.0,    0.0,  999.0,    0.0,   -0.1,   -0.1,  999.0,  999.0,  999.0,   -0.2,  999.0,  999.0,  999.0,  999.0,  999.0,  999.0,  999.0,  999.0
2016/12/06 22:10,  999.0,   -0.3,    0.1,    0.7,    0.5,   -0.2,   -0.2,   -0.2,   -0.0,    0.1,    0.1,   -0.3,   -0.5,    0.2,    1.1,    3.2,    4.3,    3.0,    5.0,    4.4,    4.2,  999.0,  999.0,    1.6,    0.3,    0.3,   -0.0,    0.3,   -0.1,   -0.0,   -0.0,   -0.2,   -0.1,   -0.0,    0.3,   -0.4,   -0.1,   -0.0,    0.3,  999.0,  999.0,   -0.9,   -0.1,    0.2,    0.0,   -0.1,    0.1,    0.4,    0.1,    0.2,   -0.1,    0.0,   -0.3,   -0.1,   -0.0,   -0.0,   -0.0,   -0.0,   -0.0,    0.1,    0.1,   -0.1,   -0.1,    0.1,    0.1,    0.0,    0.1,    0.2,    0.0,  999.0,  999.0,  999.0,  999.0,  999.0,  999.0,  999.0,  999.0,  999.0,  999.0,  999.0
2016/12/06 22:20,  999.0,    0.0,    0.0,    0.1,   -0.0,   -0.2,    0.0,   -0.1,    0.1,   -0.0,   -0.9,   -1.0,   -0.6,   -0.5,   -0.9,   -0.4,   -0.0,    1.5,    3.9,  999.0,  999.0,  999.0,  999.0,  999.0,    1.3,   -0.0,    0.3,    1.0,    0.2,   -0.0,    0.1,    0.0,    0.4,    0.1,   -0.1,   -0.0,   -0.3,   -0.5,   -0.0,   -0.3,   -0.7,  999.0,    0.0,    0.1,   -0.1,    0.1,   -0.0,    0.1,   -0.0,    0.2,   -0.1,    0.1,   -0.4,   -0.1,    0.0,   -0.0,    0.1,    0.1,    0.1,   -0.2,    0.1,    0.1,   -0.1,   -0.1,    0.2,    0.4,  999.0,    0.1,    0.0,  999.0,  999.0,  999.0,    0.1,  999.0,  999.0,  999.0,  999.0,  999.0,  999.0,  999.0
2016/12/06 22:30,  999.0,   -0.0,   -0.1,    0.0,   -0.1,   -0.0,   -0.1,   -0.1,    0.1,   -0.0,    0.1,   -0.3,   -0.4,   -0.1,    0.3,    0.4,    0.3,    0.3,    0.4,    0.5,    1.7,  999.0,  999.0,    3.7,   -0.0,    0.3,    0.2,   -0.1,    0.4,   -0.0,   -0.1,   -0.2,    0.5,   -0.1,    0.1,   -0.0,  999.0,    0.1,   -0.0,   -0.1,   -0.8,   -0.6,    0.1,    0.3,    0.2,   -0.0,    0.2,   -0.3,    0.2,    0.5,  999.0,   -0.1,   -0.0,   -0.2,    0.1,   -0.1,   -0.2,    0.1,    0.1,    0.1,   -0.1,   -0.2,   -0.1,   -0.0,   -0.0,    0.2,    0.1,    0.3,    0.6,  999.0,  999.0,  999.0,  999.0,  999.0,  999.0,  999.0,  999.0,  999.0,  999.0,  999.0
2016/12/06 22:40,  999.0,    0.0,    0.3,    0.1,   -0.1,   -0.6,   -1.3,   -0.5,    0.0,    0.3,    0.1,    0.0,   -0.2,   -0.6,    0.3,    0.3,    0.4,    0.9,    1.8,    3.4,  999.0,  999.0,  999.0,    2.3,    0.1,   -0.1,    0.2,    0.2,   -0.1,    0.5,   -0.1,    0.3,   -0.1,    0.2,   -0.1,  999.0,  999.0,  999.0,  999.0,   -0.1,   -0.7,   -0.5,   -0.2,   -0.0,    0.3,    0.3,    0.2,   -0.1,   -0.0,    0.4,    0.2,    0.3,  999.0,    0.0,   -0.3,   -0.3,   -0.0,    0.0,    0.0,    0.1,    0.2,    0.1,    0.3,    0.4,    0.0,   -0.2,    0.2,  999.0,   -0.3,  999.0,  999.0,  999.0,   -0.2,  999.0,  999.0,  999.0,  999.0,  999.0,  999.0,  999.0
2016/12/06 22:50,  999.0,    0.3,    0.4,    0.9,    2.6,    1.5,    1.1,    1.5,    1.6,    1.7,    1.4,  999.0,   -0.1,   -0.7,   -0.3,   -0.8,    0.8,    2.7,  999.0,    6.1,   11.4,  999.0,  999.0,  999.0,  999.0,  999.0,    0.5,    0.8,  999.0,   -0.0,    0.2,   -0.0,    0.1,    0.0,   -0.2,    0.0,    0.3,   -0.1,  999.0,   -0.0,   -0.6,  999.0,  999.0,   -0.4,    0.0,    0.1,    0.1,  999.0,  999.0,   -0.2,    0.3,   -0.3,   -0.1,   -0.2,   -0.1,   -0.0,   -0.2,    0.0,    0.2,   -0.2,   -0.1,    0.2,    0.3,   -0.7,  999.0,   -0.2,   -0.0,   -0.1,  999.0,  999.0,  999.0,  999.0,  999.0,  999.0,  999.0,  999.0,  999.0,  999.0,  999.0,  999.0
2016/12/06 23:00,  999.0,  999.0,    0.2,    1.0,    1.5,   -0.2,   -0.1,    0.2,    0.4,    1.1,    1.4,    0.0,    1.3,    0.5,    0.5,    1.7,    1.9,    0.9,    3.2,    6.1,   11.3,  999.0,  999.0,  999.0,  999.0,    1.0,    0.3,    0.2,  999.0,    0.2,    0.8,    0.0,    0.3,   -0.1,   -0.1,    0.3,   -0.7,  999.0,    0.0,   -0.0,   -0.9,  999.0,    0.0,  999.0,  999.0,    0.0,    0.3,  999.0,    0.2,    0.2,    0.1,   -0.3,   -0.2,   -0.0,   -0.3,    0.2,   -0.1,   -0.0,    0.1,   -0.1,    0.2,   -0.0,    0.2,   -0.2,    0.1,  999.0,   -0.1,  999.0,  999.0,  999.0,  999.0,  999.0,  999.0,  999.0,  999.0,  999.0,  999.0,  999.0,  999.0,  999.0
2016/12/06 23:10,  999.0,  999.0,   -0.4,   -0.0,    0.1,    0.1,   -0.2,    0.0,   -0.1,   -0.1,    0.0,   -0.3,   -0.5,   -0.2,    0.1,    0.2,    0.1,    0.6,    0.8,    1.5,    2.7,    4.0,  999.0,  999.0,    0.3,    0.0,   -0.0,    0.1,   -0.0,   -0.3,   -0.0,   -0.2,    0.0,    0.1,   -0.2,    0.2,    0.0,   -0.1,  999.0,   -0.3,  999.0,  999.0,  999.0,    0.2,   -0.0,   -0.2,   -0.5,  999.0,    0.2,   -0.2,   -0.2,  999.0,   -0.0,    0.2,    0.0,  999.0,   -0.3,   -0.0,   -0.1,    0.0,   -0.0,   -0.6,   -0.1,   -0.1,   -0.2,   -0.3,  999.0,   -0.1,  999.0,  999.0,  999.0,  999.0,  999.0,  999.0,  999.0,  999.0,  999.0,  999.0,  999.0,  999.0
2016/12/06 23:20,  999.0,   -0.0,   -0.0,    0.1,    0.1,   -0.2,   -0.1,   -0.1,    0.1,    0.1,    0.1,   -0.0,    0.1,    0.0,    0.2,    0.1,    0.2,    0.3,    0.5,    0.8,    2.7,    2.9,    5.1,    2.6,   -0.0,    0.1,    0.0,    0.0,   -0.1,    0.1,    0.0,   -0.0,   -0.1,    0.0,   -0.1,    0.4,    0.1,  999.0,    0.0,   -0.3,   -0.3,   -0.3,    0.2,    0.3,   -0.1,    0.1,    0.0,   -0.1,   -0.2,   -0.1,   -0.3,    0.2,   -0.3,   -0.3,   -0.2,   -0.2,    0.0,    0.2,   -0.3,    0.1,    0.0,   -0.1,   -0.2,  999.0,  999.0,    0.2,    0.1,  999.0,   -0.3,  999.0,    0.1,  999.0,    0.1,    0.0,  999.0,  999.0,  999.0,  999.0,  999.0,  999.0
2016/12/06 23:30,  999.0,  999.0,    0.0,    0.0,    0.3,    0.3,    0.1,    0.0,    0.0,   -0.1,    0.0,    0.2,    0.2,    0.2,    0.1,    0.2,    0.3,    0.4,    0.6,    1.0,    2.2,    4.9,    6.2,    2.1,   -0.2,   -0.0,    0.0,    0.1,   -0.0,    0.1,    0.2,    0.0,    0.1,    0.2,    0.1,   -0.1,    0.0,   -0.1,   -0.1,   -0.2,   -0.0,    0.1,   -0.1,   -0.1,    0.3,  999.0,    0.3,    0.2,    0.0,    0.0,   -0.2,   -0.1,    0.1,   -0.1,   -0.1,   -0.2,   -0.0,   -0.0,    0.3,    0.3,    0.2,   -0.1,    0.2,   -0.0,   -0.2,   -0.1,    0.2,    0.1,    0.2,  999.0,  999.0,  999.0,    0.2,  999.0,  999.0,  999.0,  999.0,  999.0,  999.0,  999.0
2016/12/06 23:40,  999.0,  999.0,   -0.0,   -0.1,    0.2,    0.1,    0.1,    0.1,    0.2,    0.2,    0.1,    0.1,    0.0,    0.0,    0.1,    0.1,    0.3,    0.6,    0.2,    0.3,    1.8,  999.0,  999.0,    0.1,   -0.1,   -0.2,   -0.1,    0.0,    0.0,    0.3,   -0.1,    0.3,    0.1,   -0.1,    0.0,   -0.1,   -0.1,  999.0,    0.5,   -0.0,   -0.4,   -0.2,    0.4,    0.2,    0.1,    0.2,    0.2,    0.0,   -0.0,   -0.1,  999.0,    0.0,   -0.1,    0.2,   -0.2,   -0.1,   -0.1,   -0.2,    0.1,    0.0,   -0.3,    0.2,   -0.1,    0.1,   -0.2,   -0.3,  999.0,  999.0,    0.0,  999.0,  999.0,  999.0,   -0.3,  999.0,  999.0,  999.0,  999.0,  999.0,  999.0,  999.0
2016/12/06 23:50,  999.0,   -0.2,    0.1,    0.1,   -0.1,    0.2,    0.2,    0.0,    0.3,    0.3,    0.3,    0.2,    0.2,    0.5,    0.7,    0.5,    0.7,    0.8,    0.8,    1.9,    2.8,    4.0,    1.7,   -0.1,   -0.1,   -0.3,    0.0,   -0.0,   -0.1,   -0.3,   -0.1,   -0.1,    0.0,    0.1,  999.0,   -0.2,   -0.1,   -0.1,   -0.1,   -0.1,   -0.7,   -0.4,   -0.4,   -0.3,   -0.1,    0.3,    0.0,   -0.3,   -0.2,   -0.2,   -0.1,    0.3,    0.3,    0.1,   -0.4,   -0.1,    0.1,    0.1,    0.2,   -0.1,    0.2,    0.5,  999.0,    0.1,   -0.1,   -0.1,   -0.0,  999.0,  999.0,  999.0,  999.0,  999.0,  999.0,  999.0,    0.2,  999.0,  999.0,  999.0,  999.0,  999.0
